Time,TemperatureF,DewpointF,PressureIn,WindDirection,WindDirectionDegrees,WindSpeedMPH,WindSpeedGustMPH,Humidity,HourlyPrecipIn,Conditions,Clouds,dailyrainin,SoftwareType,DateUTC
2013-02-24 00:00:00,51.7,38.3,29.84,ENE,66,1.0,1.0,60,0.00,,,0.00,Wunderground v.1.15,2013-02-24 06:00:00,
2013-02-24 00:01:00,51.7,38.3,29.83,ENE,72,1.0,5.0,60,0.00,,,0.00,Wunderground v.1.15,2013-02-24 06:01:00,
2013-02-24 00:02:00,51.6,38.2,29.83,ENE,68,1.0,5.0,60,0.00,,,0.00,Wunderground v.1.15,2013-02-24 06:02:00,
2013-02-24 00:05:00,51.4,38.0,29.83,ENE,69,2.0,5.0,60,0.00,,,0.00,Wunderground v.1.15,2013-02-24 06:05:00,
2013-02-24 00:06:00,51.4,38.0,29.83,East,80,1.0,5.0,60,0.00,,,0.00,Wunderground v.1.15,2013-02-24 06:06:00,
2013-02-24 00:07:00,51.4,38.0,29.83,NE,40,2.0,5.0,60,0.00,,,0.00,Wunderground v.1.15,2013-02-24 06:07:00,
2013-02-24 00:12:00,51.3,38.3,29.83,ENE,65,2.0,5.0,61,0.00,,,0.00,Wunderground v.1.15,2013-02-24 06:12:00,
2013-02-24 00:13:00,51.1,38.1,29.83,East,86,2.0,5.0,61,0.00,,,0.00,Wunderground v.1.15,2013-02-24 06:13:00,
2013-02-24 00:15:00,51.1,38.1,29.83,East,86,2.0,5.0,61,0.00,,,0.00,Wunderground v.1.15,2013-02-24 06:15:00,
2013-02-24 00:19:00,51.0,38.0,29.83,ENE,64,3.0,5.0,61,0.00,,,0.00,Wunderground v.1.15,2013-02-24 06:19:00,
2013-02-24 00:21:00,51.0,38.0,29.83,ENE,64,3.0,4.0,61,0.00,,,0.00,Wunderground v.1.15,2013-02-24 06:21:00,
2013-02-24 00:24:00,51.0,38.0,29.83,ENE,65,2.0,4.0,61,0.00,,,0.00,Wunderground v.1.15,2013-02-24 06:24:00,
2013-02-24 00:26:00,50.8,37.8,29.83,NE,54,2.0,4.0,61,0.00,,,0.00,Wunderground v.1.15,2013-02-24 06:26:00,
2013-02-24 00:27:00,50.8,37.8,29.83,NE,55,2.0,4.0,61,0.00,,,0.00,Wunderground v.1.15,2013-02-24 06:27:00,
2013-02-24 00:30:00,50.8,38.2,29.83,NE,56,2.0,3.0,62,0.00,,,0.00,Wunderground v.1.15,2013-02-24 06:30:00,
2013-02-24 00:32:00,50.7,38.1,29.82,ENE,58,2.0,3.0,62,0.00,,,0.00,Wunderground v.1.15,2013-02-24 06:32:00,
2013-02-24 00:33:00,50.7,38.1,29.82,ENE,58,2.0,4.0,62,0.00,,,0.00,Wunderground v.1.15,2013-02-24 06:33:00,
2013-02-24 00:35:00,50.7,38.1,29.82,ENE,58,1.0,4.0,62,0.00,,,0.00,Wunderground v.1.15,2013-02-24 06:35:00,
2013-02-24 00:36:00,50.7,38.1,29.82,ENE,58,1.0,4.0,62,0.00,,,0.00,Wunderground v.1.15,2013-02-24 06:36:00,
2013-02-24 00:37:00,50.5,38.0,29.82,ENE,58,1.0,4.0,62,0.00,,,0.00,Wunderground v.1.15,2013-02-24 06:37:00,
2013-02-24 00:39:00,50.5,38.0,29.82,East,79,1.0,2.0,62,0.00,,,0.00,Wunderground v.1.15,2013-02-24 06:39:00,
2013-02-24 00:43:00,50.4,37.9,29.82,ENE,75,1.0,2.0,62,0.00,,,0.00,Wunderground v.1.15,2013-02-24 06:43:00,
2013-02-24 00:44:00,50.4,37.9,29.82,ENE,75,1.0,2.0,62,0.00,,,0.00,Wunderground v.1.15,2013-02-24 06:44:00,
2013-02-24 00:45:00,50.2,37.7,29.82,ENE,75,1.0,2.0,62,0.00,,,0.00,Wunderground v.1.15,2013-02-24 06:45:00,
2013-02-24 00:49:00,50.1,37.6,29.82,ENE,75,1.0,1.0,62,0.00,,,0.00,Wunderground v.1.15,2013-02-24 06:49:00,
2013-02-24 00:50:00,50.1,37.6,29.82,ENE,75,1.0,2.0,62,0.00,,,0.00,Wunderground v.1.15,2013-02-24 06:50:00,
2013-02-24 00:52:00,49.9,37.8,29.82,ENE,75,1.0,2.0,63,0.00,,,0.00,Wunderground v.1.15,2013-02-24 06:52:00,
2013-02-24 00:55:00,49.9,37.8,29.82,ENE,75,1.0,3.0,63,0.00,,,0.00,Wunderground v.1.15,2013-02-24 06:55:00,
2013-02-24 00:56:00,49.8,37.7,29.82,ENE,75,1.0,3.0,63,0.00,,,0.00,Wunderground v.1.15,2013-02-24 06:56:00,
2013-02-24 00:57:00,49.8,37.7,29.82,ENE,75,1.0,3.0,63,0.00,,,0.00,Wunderground v.1.15,2013-02-24 06:57:00,
2013-02-24 01:00:00,49.8,37.7,29.82,ENE,75,1.0,3.0,63,0.00,,,0.00,Wunderground v.1.15,2013-02-24 07:00:00,
2013-02-24 01:03:00,49.6,37.5,29.83,ENE,75,1.0,3.0,63,0.00,,,0.00,Wunderground v.1.15,2013-02-24 07:03:00,
2013-02-24 01:06:00,49.6,37.9,29.83,ENE,75,0.0,3.0,64,0.00,,,0.00,Wunderground v.1.15,2013-02-24 07:06:00,
2013-02-24 01:08:00,49.5,37.8,29.83,ENE,75,0.0,0.0,64,0.00,,,0.00,Wunderground v.1.15,2013-02-24 07:08:00,
2013-02-24 01:09:00,49.5,37.8,29.83,ENE,75,0.0,2.0,64,0.00,,,0.00,Wunderground v.1.15,2013-02-24 07:09:00,
2013-02-24 01:10:00,49.5,37.8,29.83,ENE,75,0.0,2.0,64,0.00,,,0.00,Wunderground v.1.15,2013-02-24 07:10:00,
2013-02-24 01:12:00,49.5,37.8,29.83,ENE,75,0.0,2.0,64,0.00,,,0.00,Wunderground v.1.15,2013-02-24 07:12:00,
2013-02-24 01:14:00,49.5,37.8,29.83,ENE,75,0.0,2.0,64,0.00,,,0.00,Wunderground v.1.15,2013-02-24 07:14:00,
2013-02-24 01:16:00,49.4,37.7,29.82,ENE,75,0.0,2.0,64,0.00,,,0.00,Wunderground v.1.15,2013-02-24 07:16:00,
2013-02-24 01:18:00,49.4,37.7,29.82,ENE,75,0.0,0.0,64,0.00,,,0.00,Wunderground v.1.15,2013-02-24 07:18:00,
2013-02-24 01:20:00,49.4,38.1,29.82,ENE,75,0.0,0.0,65,0.00,,,0.00,Wunderground v.1.15,2013-02-24 07:20:00,
2013-02-24 01:21:00,49.2,37.9,29.82,ENE,75,0.0,0.0,65,0.00,,,0.00,Wunderground v.1.15,2013-02-24 07:21:00,
2013-02-24 01:24:00,49.2,37.9,29.82,ENE,75,0.0,3.0,65,0.00,,,0.00,Wunderground v.1.15,2013-02-24 07:24:00,
2013-02-24 01:27:00,49.2,37.9,29.82,ENE,75,0.0,3.0,65,0.00,,,0.00,Wunderground v.1.15,2013-02-24 07:27:00,
2013-02-24 01:28:00,49.2,37.9,29.82,ENE,75,0.0,0.0,65,0.00,,,0.00,Wunderground v.1.15,2013-02-24 07:28:00,
2013-02-24 01:30:00,49.2,37.9,29.82,ENE,75,1.0,1.0,65,0.00,,,0.00,Wunderground v.1.15,2013-02-24 07:30:00,
2013-02-24 01:33:00,49.1,37.8,29.81,ENE,75,1.0,2.0,65,0.00,,,0.00,Wunderground v.1.15,2013-02-24 07:33:00,
2013-02-24 01:34:00,49.1,37.8,29.81,ENE,75,1.0,2.0,65,0.00,,,0.00,Wunderground v.1.15,2013-02-24 07:34:00,
2013-02-24 01:35:00,49.1,37.8,29.81,ENE,75,1.0,2.0,65,0.00,,,0.00,Wunderground v.1.15,2013-02-24 07:35:00,
2013-02-24 01:38:00,49.1,37.8,29.81,ENE,75,0.0,0.0,65,0.00,,,0.00,Wunderground v.1.15,2013-02-24 07:38:00,
2013-02-24 01:39:00,49.1,37.8,29.81,ENE,75,0.0,1.0,65,0.00,,,0.00,Wunderground v.1.15,2013-02-24 07:39:00,
2013-02-24 01:40:00,49.1,37.8,29.81,ENE,75,0.0,1.0,65,0.00,,,0.00,Wunderground v.1.15,2013-02-24 07:40:00,
2013-02-24 01:41:00,48.9,37.6,29.81,ENE,75,0.0,1.0,65,0.00,,,0.00,Wunderground v.1.15,2013-02-24 07:41:00,
2013-02-24 01:45:00,48.9,38.0,29.81,ENE,75,0.0,1.0,66,0.00,,,0.00,Wunderground v.1.15,2013-02-24 07:45:00,
2013-02-24 01:46:00,48.9,38.0,29.81,ENE,75,0.0,1.0,66,0.00,,,0.00,Wunderground v.1.15,2013-02-24 07:46:00,
2013-02-24 01:47:00,48.9,38.0,29.81,ENE,75,0.0,2.0,66,0.00,,,0.00,Wunderground v.1.15,2013-02-24 07:47:00,
2013-02-24 01:52:00,48.8,37.9,29.81,ENE,75,0.0,2.0,66,0.00,,,0.00,Wunderground v.1.15,2013-02-24 07:52:00,
2013-02-24 01:53:00,48.8,37.9,29.81,ENE,75,1.0,2.0,66,0.00,,,0.00,Wunderground v.1.15,2013-02-24 07:53:00,
2013-02-24 01:54:00,48.8,37.9,29.81,ENE,75,1.0,2.0,66,0.00,,,0.00,Wunderground v.1.15,2013-02-24 07:54:00,
2013-02-24 01:59:00,48.8,38.3,29.81,ENE,75,1.0,1.0,67,0.00,,,0.00,Wunderground v.1.15,2013-02-24 07:59:00,
2013-02-24 02:00:00,48.8,37.9,29.81,ENE,75,1.0,2.0,66,0.00,,,0.00,Wunderground v.1.15,2013-02-24 08:00:00,
2013-02-24 02:03:00,48.8,38.3,29.81,ENE,75,1.0,2.0,67,0.00,,,0.00,Wunderground v.1.15,2013-02-24 08:03:00,
2013-02-24 02:04:00,48.8,38.3,29.81,ENE,75,1.0,2.0,67,0.00,,,0.00,Wunderground v.1.15,2013-02-24 08:04:00,
2013-02-24 02:05:00,48.8,38.3,29.81,ENE,75,1.0,2.0,67,0.00,,,0.00,Wunderground v.1.15,2013-02-24 08:05:00,
2013-02-24 02:10:00,48.6,38.1,29.81,ENE,75,1.0,3.0,67,0.00,,,0.00,Wunderground v.1.15,2013-02-24 08:10:00,
2013-02-24 02:12:00,48.6,38.1,29.81,ENE,75,1.0,3.0,67,0.00,,,0.00,Wunderground v.1.15,2013-02-24 08:12:00,
2013-02-24 02:15:00,48.6,38.1,29.81,ENE,75,1.0,3.0,67,0.00,,,0.00,Wunderground v.1.15,2013-02-24 08:15:00,
2013-02-24 02:18:00,48.6,38.1,29.81,ENE,75,1.0,1.0,67,0.00,,,0.00,Wunderground v.1.15,2013-02-24 08:18:00,
2013-02-24 02:19:00,48.6,38.1,29.81,ENE,75,1.0,1.0,67,0.00,,,0.00,Wunderground v.1.15,2013-02-24 08:19:00,
2013-02-24 02:20:00,48.6,38.1,29.81,ENE,75,1.0,1.0,67,0.00,,,0.00,Wunderground v.1.15,2013-02-24 08:20:00,
2013-02-24 02:24:00,48.6,38.1,29.81,ENE,75,1.0,3.0,67,0.00,,,0.00,Wunderground v.1.15,2013-02-24 08:24:00,
2013-02-24 02:26:00,48.6,38.1,29.81,ENE,75,1.0,3.0,67,0.00,,,0.00,Wunderground v.1.15,2013-02-24 08:26:00,
2013-02-24 02:28:00,48.6,38.1,29.81,ENE,75,1.0,1.0,67,0.00,,,0.00,Wunderground v.1.15,2013-02-24 08:28:00,
2013-02-24 02:29:00,48.6,38.1,29.81,ENE,75,1.0,2.0,67,0.00,,,0.00,Wunderground v.1.15,2013-02-24 08:29:00,
2013-02-24 02:34:00,48.6,38.1,29.81,ENE,75,1.0,2.0,67,0.00,,,0.00,Wunderground v.1.15,2013-02-24 08:34:00,
2013-02-24 02:35:00,48.8,38.3,29.81,ENE,75,1.0,2.0,67,0.00,,,0.00,Wunderground v.1.15,2013-02-24 08:35:00,
2013-02-24 02:36:00,48.6,38.1,29.81,ENE,75,1.0,2.0,67,0.00,,,0.00,Wunderground v.1.15,2013-02-24 08:36:00,
2013-02-24 02:39:00,48.6,38.1,29.81,ENE,75,2.0,2.0,67,0.00,,,0.00,Wunderground v.1.15,2013-02-24 08:39:00,
2013-02-24 02:40:00,48.6,38.1,29.81,ENE,75,2.0,3.0,67,0.00,,,0.00,Wunderground v.1.15,2013-02-24 08:40:00,
2013-02-24 02:42:00,48.6,38.1,29.81,ENE,75,2.0,3.0,67,0.00,,,0.00,Wunderground v.1.15,2013-02-24 08:42:00,
2013-02-24 02:44:00,48.6,38.1,29.81,ENE,75,2.0,3.0,67,0.00,,,0.00,Wunderground v.1.15,2013-02-24 08:44:00,
2013-02-24 02:45:00,48.6,38.1,29.81,ENE,75,2.0,3.0,67,0.00,,,0.00,Wunderground v.1.15,2013-02-24 08:45:00,
2013-02-24 02:50:00,48.6,38.5,29.80,ENE,75,1.0,1.0,68,0.00,,,0.00,Wunderground v.1.15,2013-02-24 08:50:00,
2013-02-24 02:51:00,48.6,38.5,29.80,ENE,75,0.0,1.0,68,0.00,,,0.00,Wunderground v.1.15,2013-02-24 08:51:00,
2013-02-24 02:52:00,48.6,38.5,29.80,ENE,75,0.0,1.0,68,0.00,,,0.00,Wunderground v.1.15,2013-02-24 08:52:00,
2013-02-24 02:56:00,48.6,38.5,29.80,ENE,75,1.0,2.0,68,0.00,,,0.00,Wunderground v.1.15,2013-02-24 08:56:00,
2013-02-24 02:58:00,48.6,38.5,29.80,ENE,75,1.0,1.0,68,0.00,,,0.00,Wunderground v.1.15,2013-02-24 08:58:00,
2013-02-24 02:59:00,48.6,38.5,29.80,ENE,75,1.0,1.0,68,0.00,,,0.00,Wunderground v.1.15,2013-02-24 08:59:00,
2013-02-24 03:01:00,48.6,38.5,29.79,ENE,75,0.0,1.0,68,0.00,,,0.00,Wunderground v.1.15,2013-02-24 09:01:00,
2013-02-24 03:03:00,48.5,38.4,29.79,ENE,75,0.0,1.0,68,0.00,,,0.00,Wunderground v.1.15,2013-02-24 09:03:00,
2013-02-24 03:06:00,48.5,38.4,29.79,ENE,75,0.0,2.0,68,0.00,,,0.00,Wunderground v.1.15,2013-02-24 09:06:00,
2013-02-24 03:08:00,48.3,38.2,29.79,ENE,75,0.0,0.0,68,0.00,,,0.00,Wunderground v.1.15,2013-02-24 09:08:00,
2013-02-24 03:11:00,48.3,38.2,29.79,ENE,75,0.0,0.0,68,0.00,,,0.00,Wunderground v.1.15,2013-02-24 09:11:00,
2013-02-24 03:12:00,48.3,38.2,29.79,ENE,75,0.0,0.0,68,0.00,,,0.00,Wunderground v.1.15,2013-02-24 09:12:00,
2013-02-24 03:13:00,48.3,38.2,29.79,ENE,75,0.0,0.0,68,0.00,,,0.00,Wunderground v.1.15,2013-02-24 09:13:00,
2013-02-24 03:14:00,48.3,38.2,29.79,ENE,75,0.0,0.0,68,0.00,,,0.00,Wunderground v.1.15,2013-02-24 09:14:00,
2013-02-24 03:16:00,48.2,38.1,29.79,ENE,75,0.0,0.0,68,0.00,,,0.00,Wunderground v.1.15,2013-02-24 09:16:00,
2013-02-24 03:19:00,48.2,38.1,29.79,ENE,75,0.0,2.0,68,0.00,,,0.00,Wunderground v.1.15,2013-02-24 09:19:00,
2013-02-24 03:20:00,48.2,38.1,29.79,ENE,75,0.0,2.0,68,0.00,,,0.00,Wunderground v.1.15,2013-02-24 09:20:00,
2013-02-24 03:26:00,48.0,38.3,29.79,ENE,75,1.0,3.0,69,0.00,,,0.00,Wunderground v.1.15,2013-02-24 09:26:00,
2013-02-24 03:28:00,47.9,38.2,29.79,ENE,75,2.0,2.0,69,0.00,,,0.00,Wunderground v.1.15,2013-02-24 09:28:00,
2013-02-24 03:31:00,47.9,38.2,29.78,ENE,75,2.0,2.0,69,0.00,,,0.00,Wunderground v.1.15,2013-02-24 09:31:00,
2013-02-24 03:32:00,47.7,38.0,29.78,ENE,75,2.0,2.0,69,0.00,,,0.00,Wunderground v.1.15,2013-02-24 09:32:00,
2013-02-24 03:34:00,47.7,38.0,29.78,ENE,75,2.0,3.0,69,0.00,,,0.00,Wunderground v.1.15,2013-02-24 09:34:00,
2013-02-24 03:35:00,47.7,38.0,29.78,ENE,75,2.0,3.0,69,0.00,,,0.00,Wunderground v.1.15,2013-02-24 09:35:00,
2013-02-24 03:36:00,47.7,38.0,29.78,ENE,75,2.0,3.0,69,0.00,,,0.00,Wunderground v.1.15,2013-02-24 09:36:00,
2013-02-24 03:41:00,47.6,37.9,29.78,ENE,75,2.0,2.0,69,0.00,,,0.00,Wunderground v.1.15,2013-02-24 09:41:00,
2013-02-24 03:42:00,47.6,37.9,29.78,ENE,75,2.0,2.0,69,0.00,,,0.00,Wunderground v.1.15,2013-02-24 09:42:00,
2013-02-24 03:43:00,47.6,37.9,29.78,ENE,75,2.0,2.0,69,0.00,,,0.00,Wunderground v.1.15,2013-02-24 09:43:00,
2013-02-24 03:48:00,47.3,38.0,29.78,ENE,75,1.0,1.0,70,0.00,,,0.00,Wunderground v.1.15,2013-02-24 09:48:00,
2013-02-24 03:49:00,47.3,38.0,29.78,ENE,75,1.0,1.0,70,0.00,,,0.00,Wunderground v.1.15,2013-02-24 09:49:00,
2013-02-24 03:50:00,47.3,38.0,29.78,ENE,75,1.0,1.0,70,0.00,,,0.00,Wunderground v.1.15,2013-02-24 09:50:00,
2013-02-24 03:55:00,47.1,38.2,29.78,ENE,75,0.0,1.0,71,0.00,,,0.00,Wunderground v.1.15,2013-02-24 09:55:00,
2013-02-24 03:58:00,47.0,38.1,29.78,ENE,75,0.0,0.0,71,0.00,,,0.00,Wunderground v.1.15,2013-02-24 09:58:00,
2013-02-24 04:00:00,47.0,38.1,29.78,ENE,75,0.0,0.0,71,0.00,,,0.00,Wunderground v.1.15,2013-02-24 10:00:00,
2013-02-24 04:02:00,47.0,38.1,29.78,ENE,75,0.0,0.0,71,0.00,,,0.00,Wunderground v.1.15,2013-02-24 10:02:00,
2013-02-24 04:08:00,47.1,38.5,29.78,ENE,75,0.0,0.0,72,0.00,,,0.00,Wunderground v.1.15,2013-02-24 10:08:00,
2013-02-24 04:09:00,47.1,38.5,29.78,ENE,75,0.0,0.0,72,0.00,,,0.00,Wunderground v.1.15,2013-02-24 10:09:00,
2013-02-24 04:13:00,47.1,38.5,29.78,ENE,75,0.0,0.0,72,0.00,,,0.00,Wunderground v.1.15,2013-02-24 10:13:00,
2013-02-24 04:15:00,47.3,38.7,29.78,ENE,75,0.0,2.0,72,0.00,,,0.00,Wunderground v.1.15,2013-02-24 10:15:00,
2013-02-24 04:16:00,47.3,38.4,29.78,ENE,75,0.0,2.0,71,0.00,,,0.00,Wunderground v.1.15,2013-02-24 10:16:00,
2013-02-24 04:19:00,47.3,38.4,29.78,ENE,75,1.0,2.0,71,0.00,,,0.00,Wunderground v.1.15,2013-02-24 10:19:00,
2013-02-24 04:21:00,47.3,38.4,29.78,ENE,75,1.0,2.0,71,0.00,,,0.00,Wunderground v.1.15,2013-02-24 10:21:00,
2013-02-24 04:24:00,47.1,38.2,29.78,ENE,75,1.0,2.0,71,0.00,,,0.00,Wunderground v.1.15,2013-02-24 10:24:00,
2013-02-24 04:25:00,47.1,38.2,29.78,ENE,75,1.0,2.0,71,0.00,,,0.00,Wunderground v.1.15,2013-02-24 10:25:00,
2013-02-24 04:28:00,47.1,38.5,29.78,ENE,75,1.0,1.0,72,0.00,,,0.00,Wunderground v.1.15,2013-02-24 10:28:00,
2013-02-24 04:31:00,47.1,38.5,29.79,ENE,75,1.0,1.0,72,0.00,,,0.00,Wunderground v.1.15,2013-02-24 10:31:00,
2013-02-24 04:32:00,47.1,38.5,29.79,ENE,75,1.0,1.0,72,0.00,,,0.00,Wunderground v.1.15,2013-02-24 10:32:00,
2013-02-24 04:34:00,47.1,38.5,29.79,ENE,75,1.0,1.0,72,0.00,,,0.00,Wunderground v.1.15,2013-02-24 10:34:00,
2013-02-24 04:39:00,47.1,38.5,29.79,ENE,75,0.0,0.0,72,0.00,,,0.00,Wunderground v.1.15,2013-02-24 10:39:00,
2013-02-24 04:40:00,47.1,38.5,29.79,ENE,75,0.0,0.0,72,0.00,,,0.00,Wunderground v.1.15,2013-02-24 10:40:00,
2013-02-24 04:41:00,47.3,38.7,29.79,ENE,75,0.0,2.0,72,0.00,,,0.00,Wunderground v.1.15,2013-02-24 10:41:00,
2013-02-24 04:42:00,47.3,38.7,29.79,ENE,75,0.0,2.0,72,0.00,,,0.00,Wunderground v.1.15,2013-02-24 10:42:00,
2013-02-24 04:48:00,47.3,38.7,29.78,ENE,75,1.0,2.0,72,0.00,,,0.00,Wunderground v.1.15,2013-02-24 10:48:00,
2013-02-24 04:50:00,47.3,38.7,29.78,ENE,75,2.0,3.0,72,0.00,,,0.00,Wunderground v.1.15,2013-02-24 10:50:00,
2013-02-24 04:51:00,47.3,38.7,29.78,ENE,75,2.0,3.0,72,0.00,,,0.00,Wunderground v.1.15,2013-02-24 10:51:00,
2013-02-24 04:53:00,47.3,38.7,29.78,ENE,75,2.0,3.0,72,0.00,,,0.00,Wunderground v.1.15,2013-02-24 10:53:00,
2013-02-24 04:58:00,47.1,38.5,29.78,ENE,75,1.0,1.0,72,0.00,,,0.00,Wunderground v.1.15,2013-02-24 10:58:00,
2013-02-24 04:59:00,47.0,38.4,29.78,ENE,75,1.0,1.0,72,0.00,,,0.00,Wunderground v.1.15,2013-02-24 10:59:00,
2013-02-24 05:03:00,46.8,38.2,29.79,ENE,75,0.0,1.0,72,0.00,,,0.00,Wunderground v.1.15,2013-02-24 11:03:00,
2013-02-24 05:05:00,46.8,38.2,29.79,ENE,75,0.0,1.0,72,0.00,,,0.00,Wunderground v.1.15,2013-02-24 11:05:00,
2013-02-24 05:06:00,46.8,38.2,29.79,ENE,75,0.0,1.0,72,0.00,,,0.00,Wunderground v.1.15,2013-02-24 11:06:00,
2013-02-24 05:08:00,46.8,38.2,29.79,ENE,75,0.0,0.0,72,0.00,,,0.00,Wunderground v.1.15,2013-02-24 11:08:00,
2013-02-24 05:09:00,46.8,38.2,29.79,ENE,75,0.0,0.0,72,0.00,,,0.00,Wunderground v.1.15,2013-02-24 11:09:00,
2013-02-24 05:12:00,46.8,38.2,29.79,ENE,75,0.0,0.0,72,0.00,,,0.00,Wunderground v.1.15,2013-02-24 11:12:00,
2013-02-24 05:14:00,46.8,38.2,29.79,ENE,75,0.0,0.0,72,0.00,,,0.00,Wunderground v.1.15,2013-02-24 11:14:00,
2013-02-24 05:16:00,46.7,38.1,29.79,ENE,75,0.0,0.0,72,0.00,,,0.00,Wunderground v.1.15,2013-02-24 11:16:00,
2013-02-24 05:19:00,46.7,38.1,29.79,ENE,75,0.0,0.0,72,0.00,,,0.00,Wunderground v.1.15,2013-02-24 11:19:00,
2013-02-24 05:21:00,46.7,38.5,29.79,ENE,75,0.0,0.0,73,0.00,,,0.00,Wunderground v.1.15,2013-02-24 11:21:00,
2013-02-24 05:22:00,46.5,38.3,29.79,ENE,75,0.0,0.0,73,0.00,,,0.00,Wunderground v.1.15,2013-02-24 11:22:00,
2013-02-24 05:23:00,46.5,38.3,29.79,ENE,75,0.0,0.0,73,0.00,,,0.00,Wunderground v.1.15,2013-02-24 11:23:00,
2013-02-24 05:24:00,46.5,38.3,29.79,ENE,75,0.0,0.0,73,0.00,,,0.00,Wunderground v.1.15,2013-02-24 11:24:00,
2013-02-24 05:28:00,46.5,38.3,29.79,ENE,75,0.0,0.0,73,0.00,,,0.00,Wunderground v.1.15,2013-02-24 11:28:00,
2013-02-24 05:29:00,46.5,38.3,29.79,ENE,75,0.0,0.0,73,0.00,,,0.00,Wunderground v.1.15,2013-02-24 11:29:00,
2013-02-24 05:30:00,46.4,38.2,29.79,ENE,75,0.0,0.0,73,0.00,,,0.00,Wunderground v.1.15,2013-02-24 11:30:00,
2013-02-24 05:33:00,46.4,38.6,29.79,ENE,75,0.0,0.0,74,0.00,,,0.00,Wunderground v.1.15,2013-02-24 11:33:00,
2013-02-24 05:35:00,46.4,38.6,29.79,ENE,75,0.0,0.0,74,0.00,,,0.00,Wunderground v.1.15,2013-02-24 11:35:00,
2013-02-24 05:38:00,46.4,38.6,29.79,ENE,75,0.0,0.0,74,0.00,,,0.00,Wunderground v.1.15,2013-02-24 11:38:00,
2013-02-24 05:40:00,46.2,38.4,29.79,ENE,75,0.0,0.0,74,0.00,,,0.00,Wunderground v.1.15,2013-02-24 11:40:00,
2013-02-24 05:41:00,46.2,38.4,29.79,ENE,75,0.0,0.0,74,0.00,,,0.00,Wunderground v.1.15,2013-02-24 11:41:00,
2013-02-24 05:43:00,46.2,38.4,29.79,ENE,75,0.0,0.0,74,0.00,,,0.00,Wunderground v.1.15,2013-02-24 11:43:00,
2013-02-24 05:48:00,46.1,38.3,29.78,ENE,75,0.0,0.0,74,0.00,,,0.00,Wunderground v.1.15,2013-02-24 11:48:00,
2013-02-24 05:50:00,46.1,38.6,29.78,ENE,75,0.0,0.0,75,0.00,,,0.00,Wunderground v.1.15,2013-02-24 11:50:00,
2013-02-24 05:54:00,46.0,38.2,29.78,ENE,75,0.0,0.0,74,0.00,,,0.00,Wunderground v.1.15,2013-02-24 11:54:00,
2013-02-24 05:56:00,45.8,38.3,29.78,ENE,75,0.0,0.0,75,0.00,,,0.00,Wunderground v.1.15,2013-02-24 11:56:00,
2013-02-24 05:58:00,45.8,38.3,29.78,ENE,75,0.0,0.0,75,0.00,,,0.00,Wunderground v.1.15,2013-02-24 11:58:00,
2013-02-24 05:59:00,45.8,38.3,29.78,ENE,75,0.0,0.0,75,0.00,,,0.00,Wunderground v.1.15,2013-02-24 11:59:00,
2013-02-24 06:01:00,45.8,38.3,29.79,ENE,75,0.0,0.0,75,0.00,,,0.00,Wunderground v.1.15,2013-02-24 12:01:00,
2013-02-24 06:03:00,45.8,38.7,29.79,ENE,75,0.0,0.0,76,0.00,,,0.00,Wunderground v.1.15,2013-02-24 12:03:00,
2013-02-24 06:04:00,45.8,38.7,29.79,ENE,75,0.0,0.0,76,0.00,,,0.00,Wunderground v.1.15,2013-02-24 12:04:00,
2013-02-24 06:05:00,45.8,38.7,29.79,ENE,75,0.0,0.0,76,0.00,,,0.00,Wunderground v.1.15,2013-02-24 12:05:00,
2013-02-24 06:09:00,45.8,38.7,29.79,ENE,75,0.0,0.0,76,0.00,,,0.00,Wunderground v.1.15,2013-02-24 12:09:00,
2013-02-24 06:11:00,45.8,38.7,29.79,ENE,75,0.0,0.0,76,0.00,,,0.00,Wunderground v.1.15,2013-02-24 12:11:00,
2013-02-24 06:12:00,46.0,38.9,29.79,ENE,75,0.0,2.0,76,0.00,,,0.00,Wunderground v.1.15,2013-02-24 12:12:00,
2013-02-24 06:13:00,46.0,38.9,29.79,ENE,75,0.0,2.0,76,0.00,,,0.00,Wunderground v.1.15,2013-02-24 12:13:00,
2013-02-24 06:14:00,46.0,38.9,29.79,ENE,75,0.0,2.0,76,0.00,,,0.00,Wunderground v.1.15,2013-02-24 12:14:00,
2013-02-24 06:18:00,46.1,39.3,29.79,ENE,75,1.0,3.0,77,0.00,,,0.00,Wunderground v.1.15,2013-02-24 12:18:00,
2013-02-24 06:19:00,46.2,39.4,29.79,ENE,75,1.0,3.0,77,0.00,,,0.00,Wunderground v.1.15,2013-02-24 12:19:00,
2013-02-24 06:20:00,46.2,39.4,29.79,ENE,75,2.0,3.0,77,0.00,,,0.00,Wunderground v.1.15,2013-02-24 12:20:00,
2013-02-24 06:23:00,46.4,39.2,29.79,ENE,75,2.0,3.0,76,0.00,,,0.00,Wunderground v.1.15,2013-02-24 12:23:00,
2013-02-24 06:25:00,46.5,39.3,29.79,ENE,75,2.0,3.0,76,0.00,,,0.00,Wunderground v.1.15,2013-02-24 12:25:00,
2013-02-24 06:28:00,46.4,39.2,29.79,ENE,75,2.0,2.0,76,0.00,,,0.00,Wunderground v.1.15,2013-02-24 12:28:00,
2013-02-24 06:29:00,46.4,39.2,29.79,ENE,75,1.0,2.0,76,0.00,,,0.00,Wunderground v.1.15,2013-02-24 12:29:00,
2013-02-24 06:31:00,46.5,39.3,29.79,ENE,75,1.0,2.0,76,0.00,,,0.00,Wunderground v.1.15,2013-02-24 12:31:00,
2013-02-24 06:32:00,46.5,39.3,29.79,ENE,75,1.0,2.0,76,0.00,,,0.00,Wunderground v.1.15,2013-02-24 12:32:00,
2013-02-24 06:33:00,46.5,39.3,29.79,ENE,75,1.0,2.0,76,0.00,,,0.00,Wunderground v.1.15,2013-02-24 12:33:00,
2013-02-24 06:36:00,46.7,39.5,29.79,ENE,75,1.0,2.0,76,0.00,,,0.00,Wunderground v.1.15,2013-02-24 12:36:00,
2013-02-24 06:38:00,46.7,39.5,29.79,ENE,75,2.0,2.0,76,0.00,,,0.00,Wunderground v.1.15,2013-02-24 12:38:00,
2013-02-24 06:43:00,46.8,39.6,29.79,ENE,75,2.0,2.0,76,0.00,,,0.00,Wunderground v.1.15,2013-02-24 12:43:00,
2013-02-24 06:44:00,46.8,39.6,29.79,ENE,75,2.0,2.0,76,0.00,,,0.00,Wunderground v.1.15,2013-02-24 12:44:00,
2013-02-24 06:45:00,46.8,39.6,29.79,ENE,75,2.0,2.0,76,0.00,,,0.00,Wunderground v.1.15,2013-02-24 12:45:00,
2013-02-24 06:49:00,46.7,39.5,29.79,ENE,75,1.0,1.0,76,0.00,,,0.00,Wunderground v.1.15,2013-02-24 12:49:00,
2013-02-24 06:51:00,46.5,39.3,29.79,ENE,75,1.0,1.0,76,0.00,,,0.00,Wunderground v.1.15,2013-02-24 12:51:00,
2013-02-24 06:52:00,46.5,39.3,29.79,ENE,75,1.0,1.0,76,0.00,,,0.00,Wunderground v.1.15,2013-02-24 12:52:00,
2013-02-24 06:54:00,46.5,39.3,29.79,ENE,75,0.0,1.0,76,0.00,,,0.00,Wunderground v.1.15,2013-02-24 12:54:00,
2013-02-24 06:56:00,46.4,39.2,29.79,ENE,75,0.0,1.0,76,0.00,,,0.00,Wunderground v.1.15,2013-02-24 12:56:00,
2013-02-24 07:00:00,46.4,39.6,29.79,ENE,75,0.0,0.0,77,0.00,,,0.00,Wunderground v.1.15,2013-02-24 13:00:00,
2013-02-24 07:01:00,46.4,39.6,29.78,ENE,75,0.0,0.0,77,0.00,,,0.00,Wunderground v.1.15,2013-02-24 13:01:00,
2013-02-24 07:02:00,46.4,39.6,29.78,ENE,75,0.0,0.0,77,0.00,,,0.00,Wunderground v.1.15,2013-02-24 13:02:00,
2013-02-24 07:03:00,46.4,39.6,29.78,ENE,75,0.0,0.0,77,0.00,,,0.00,Wunderground v.1.15,2013-02-24 13:03:00,
2013-02-24 07:08:00,46.5,39.7,29.78,ENE,75,1.0,2.0,77,0.00,,,0.00,Wunderground v.1.15,2013-02-24 13:08:00,
2013-02-24 07:09:00,46.5,39.7,29.78,ENE,75,1.0,2.0,77,0.00,,,0.00,Wunderground v.1.15,2013-02-24 13:09:00,
2013-02-24 07:10:00,46.5,39.7,29.78,ENE,75,1.0,3.0,77,0.00,,,0.00,Wunderground v.1.15,2013-02-24 13:10:00,
2013-02-24 07:11:00,46.5,39.7,29.78,ENE,75,1.0,3.0,77,0.00,,,0.00,Wunderground v.1.15,2013-02-24 13:11:00,
2013-02-24 07:15:00,46.7,39.9,29.78,ENE,75,2.0,3.0,77,0.00,,,0.00,Wunderground v.1.15,2013-02-24 13:15:00,
2013-02-24 07:16:00,46.7,39.9,29.79,ENE,75,2.0,3.0,77,0.00,,,0.00,Wunderground v.1.15,2013-02-24 13:16:00,
2013-02-24 07:17:00,46.7,39.9,29.79,ENE,75,2.0,3.0,77,0.00,,,0.00,Wunderground v.1.15,2013-02-24 13:17:00,
2013-02-24 07:19:00,46.7,39.9,29.79,ENE,75,2.0,2.0,77,0.00,,,0.00,Wunderground v.1.15,2013-02-24 13:19:00,
2013-02-24 07:22:00,46.8,40.0,29.79,ENE,75,2.0,2.0,77,0.00,,,0.00,Wunderground v.1.15,2013-02-24 13:22:00,
2013-02-24 07:24:00,47.0,40.2,29.79,ENE,75,2.0,2.0,77,0.00,,,0.00,Wunderground v.1.15,2013-02-24 13:24:00,
2013-02-24 07:25:00,47.0,40.2,29.79,ENE,75,2.0,2.0,77,0.00,,,0.00,Wunderground v.1.15,2013-02-24 13:25:00,
2013-02-24 07:26:00,47.0,40.2,29.79,ENE,75,2.0,3.0,77,0.00,,,0.00,Wunderground v.1.15,2013-02-24 13:26:00,
2013-02-24 07:27:00,47.0,40.2,29.79,ENE,75,2.0,3.0,77,0.00,,,0.00,Wunderground v.1.15,2013-02-24 13:27:00,
2013-02-24 07:32:00,47.3,40.5,29.79,ENE,75,2.0,3.0,77,0.00,,,0.00,Wunderground v.1.15,2013-02-24 13:32:00,
2013-02-24 07:33:00,47.4,40.6,29.79,ENE,75,2.0,3.0,77,0.00,,,0.00,Wunderground v.1.15,2013-02-24 13:33:00,
2013-02-24 07:36:00,47.6,40.7,29.79,ENE,75,2.0,3.0,77,0.00,,,0.00,Wunderground v.1.15,2013-02-24 13:36:00,
2013-02-24 07:38:00,47.6,40.7,29.79,ENE,75,2.0,3.0,77,0.00,,,0.00,Wunderground v.1.15,2013-02-24 13:38:00,
2013-02-24 07:39:00,47.6,40.7,29.79,ENE,75,2.0,3.0,77,0.00,,,0.00,Wunderground v.1.15,2013-02-24 13:39:00,
2013-02-24 07:41:00,47.7,40.5,29.79,ENE,72,2.0,5.0,76,0.00,,,0.00,Wunderground v.1.15,2013-02-24 13:41:00,
2013-02-24 07:43:00,47.7,40.5,29.79,ENE,72,2.0,5.0,76,0.00,,,0.00,Wunderground v.1.15,2013-02-24 13:43:00,
2013-02-24 07:45:00,47.9,40.7,29.79,ENE,71,3.0,5.0,76,0.00,,,0.00,Wunderground v.1.15,2013-02-24 13:45:00,
2013-02-24 07:46:00,47.9,40.7,29.80,ENE,71,3.0,5.0,76,0.00,,,0.00,Wunderground v.1.15,2013-02-24 13:46:00,
2013-02-24 07:49:00,48.0,40.8,29.80,ENE,68,3.0,5.0,76,0.00,,,0.00,Wunderground v.1.15,2013-02-24 13:49:00,
2013-02-24 07:50:00,48.0,40.8,29.80,ENE,68,3.0,5.0,76,0.00,,,0.00,Wunderground v.1.15,2013-02-24 13:50:00,
2013-02-24 07:51:00,48.0,40.5,29.80,ENE,68,3.0,5.0,75,0.00,,,0.00,Wunderground v.1.15,2013-02-24 13:51:00,
2013-02-24 07:56:00,48.5,40.9,29.80,NE,52,3.0,5.0,75,0.00,,,0.00,Wunderground v.1.15,2013-02-24 13:56:00,
2013-02-24 07:57:00,48.6,41.0,29.80,NE,52,4.0,5.0,75,0.00,,,0.00,Wunderground v.1.15,2013-02-24 13:57:00,
2013-02-24 07:59:00,48.8,40.9,29.80,NE,52,3.0,3.0,74,0.00,,,0.00,Wunderground v.1.15,2013-02-24 13:59:00,
2013-02-24 08:00:00,48.9,41.0,29.80,NE,52,3.0,3.0,74,0.00,,,0.00,Wunderground v.1.15,2013-02-24 14:00:00,
2013-02-24 08:04:00,49.4,41.1,29.80,NE,52,3.0,3.0,73,0.00,,,0.00,Wunderground v.1.15,2013-02-24 14:04:00,
2013-02-24 08:06:00,49.5,41.2,29.80,NE,52,3.0,3.0,73,0.00,,,0.00,Wunderground v.1.15,2013-02-24 14:06:00,
2013-02-24 08:07:00,49.6,41.3,29.80,NE,52,2.0,3.0,73,0.00,,,0.00,Wunderground v.1.15,2013-02-24 14:07:00,
2013-02-24 08:08:00,49.9,41.2,29.80,NE,52,2.0,3.0,72,0.00,,,0.00,Wunderground v.1.15,2013-02-24 14:08:00,
2013-02-24 08:09:00,49.9,41.2,29.80,NE,52,2.0,3.0,72,0.00,,,0.00,Wunderground v.1.15,2013-02-24 14:09:00,
2013-02-24 08:12:00,50.4,41.3,29.80,NE,52,2.0,3.0,71,0.00,,,0.00,Wunderground v.1.15,2013-02-24 14:12:00,
2013-02-24 08:14:00,50.5,41.4,29.80,NE,52,2.0,3.0,71,0.00,,,0.00,Wunderground v.1.15,2013-02-24 14:14:00,
2013-02-24 08:16:00,50.8,41.4,29.80,NE,52,2.0,3.0,70,0.00,,,0.00,Wunderground v.1.15,2013-02-24 14:16:00,
2013-02-24 08:17:00,51.0,41.6,29.80,NE,52,2.0,3.0,70,0.00,,,0.00,Wunderground v.1.15,2013-02-24 14:17:00,
2013-02-24 08:20:00,51.4,41.9,29.80,NE,54,2.0,2.0,70,0.00,,,0.00,Wunderground v.1.15,2013-02-24 14:20:00,
2013-02-24 08:22:00,51.7,41.9,29.80,NE,54,2.0,2.0,69,0.00,,,0.00,Wunderground v.1.15,2013-02-24 14:22:00,
2013-02-24 08:25:00,52.2,42.0,29.80,East,90,2.0,4.0,68,0.00,,,0.00,Wunderground v.1.15,2013-02-24 14:25:00,
2013-02-24 08:26:00,52.2,41.6,29.80,East,92,2.0,4.0,67,0.00,,,0.00,Wunderground v.1.15,2013-02-24 14:26:00,
2013-02-24 08:29:00,52.5,41.9,29.80,ESE,112,2.0,5.0,67,0.00,,,0.00,Wunderground v.1.15,2013-02-24 14:29:00,
2013-02-24 08:31:00,52.6,41.6,29.80,East,92,3.0,5.0,66,0.00,,,0.00,Wunderground v.1.15,2013-02-24 14:31:00,
2013-02-24 08:32:00,52.6,41.6,29.80,East,92,3.0,5.0,66,0.00,,,0.00,Wunderground v.1.15,2013-02-24 14:32:00,
2013-02-24 08:34:00,52.8,41.7,29.80,ESE,116,3.0,5.0,66,0.00,,,0.00,Wunderground v.1.15,2013-02-24 14:34:00,
2013-02-24 08:35:00,52.9,41.8,29.80,ENE,76,3.0,5.0,66,0.00,,,0.00,Wunderground v.1.15,2013-02-24 14:35:00,
2013-02-24 08:36:00,53.1,41.6,29.80,ENE,76,3.0,5.0,65,0.00,,,0.00,Wunderground v.1.15,2013-02-24 14:36:00,
2013-02-24 08:38:00,53.1,41.6,29.80,ENE,76,3.0,5.0,65,0.00,,,0.00,Wunderground v.1.15,2013-02-24 14:38:00,
2013-02-24 08:40:00,53.2,41.7,29.80,ENE,76,3.0,3.0,65,0.00,,,0.00,Wunderground v.1.15,2013-02-24 14:40:00,
2013-02-24 08:41:00,53.3,41.8,29.80,ENE,76,3.0,3.0,65,0.00,,,0.00,Wunderground v.1.15,2013-02-24 14:41:00,
2013-02-24 08:42:00,53.3,41.4,29.80,SE,138,3.0,6.0,64,0.00,,,0.00,Wunderground v.1.15,2013-02-24 14:42:00,
2013-02-24 08:44:00,53.3,41.4,29.80,ESE,117,3.0,6.0,64,0.00,,,0.00,Wunderground v.1.15,2013-02-24 14:44:00,
2013-02-24 08:46:00,53.6,41.7,29.80,East,95,3.0,8.0,64,0.00,,,0.00,Wunderground v.1.15,2013-02-24 14:46:00,
2013-02-24 08:49:00,53.6,41.7,29.80,ESE,103,3.0,5.0,64,0.00,,,0.00,Wunderground v.1.15,2013-02-24 14:49:00,
2013-02-24 08:52:00,53.6,41.7,29.80,East,97,4.0,7.0,64,0.00,,,0.00,Wunderground v.1.15,2013-02-24 14:52:00,
2013-02-24 08:54:00,53.6,41.7,29.80,East,96,4.0,7.0,64,0.00,,,0.00,Wunderground v.1.15,2013-02-24 14:54:00,
2013-02-24 08:55:00,53.6,41.7,29.80,ESE,116,5.0,7.0,64,0.00,,,0.00,Wunderground v.1.15,2013-02-24 14:55:00,
2013-02-24 08:56:00,53.8,41.9,29.80,ESE,114,5.0,7.0,64,0.00,,,0.00,Wunderground v.1.15,2013-02-24 14:56:00,
2013-02-24 08:58:00,53.6,41.7,29.80,East,96,5.0,5.0,64,0.00,,,0.00,Wunderground v.1.15,2013-02-24 14:58:00,
2013-02-24 09:01:00,53.9,42.4,29.80,SE,133,5.0,5.0,65,0.00,,,0.00,Wunderground v.1.15,2013-02-24 15:01:00,
2013-02-24 09:02:00,54.1,42.2,29.80,SE,131,5.0,5.0,64,0.00,,,0.00,Wunderground v.1.15,2013-02-24 15:02:00,
2013-02-24 09:04:00,54.4,42.5,29.80,SE,138,5.0,7.0,64,0.00,,,0.00,Wunderground v.1.15,2013-02-24 15:04:00,
2013-02-24 09:07:00,54.8,42.9,29.80,SE,143,5.0,7.0,64,0.00,,,0.00,Wunderground v.1.15,2013-02-24 15:07:00,
2013-02-24 09:11:00,55.6,43.2,29.80,SE,134,4.0,6.0,63,0.00,,,0.00,Wunderground v.1.15,2013-02-24 15:11:00,
2013-02-24 09:12:00,55.6,42.8,29.80,SE,134,4.0,6.0,62,0.00,,,0.00,Wunderground v.1.15,2013-02-24 15:12:00,
2013-02-24 09:13:00,55.6,42.8,29.80,East,96,5.0,6.0,62,0.00,,,0.00,Wunderground v.1.15,2013-02-24 15:13:00,
2013-02-24 09:16:00,55.6,42.8,29.80,SE,127,5.0,10.0,62,0.00,,,0.00,Wunderground v.1.15,2013-02-24 15:16:00,
2013-02-24 09:17:00,55.7,43.3,29.80,SE,124,5.0,10.0,63,0.00,,,0.00,Wunderground v.1.15,2013-02-24 15:17:00,
2013-02-24 09:18:00,56.0,43.2,29.80,SE,128,5.0,7.0,62,0.00,,,0.00,Wunderground v.1.15,2013-02-24 15:18:00,
2013-02-24 09:22:00,56.0,43.2,29.80,East,96,6.0,7.0,62,0.00,,,0.00,Wunderground v.1.15,2013-02-24 15:22:00,
2013-02-24 09:23:00,56.2,43.3,29.80,SSE,147,5.0,7.0,62,0.00,,,0.00,Wunderground v.1.15,2013-02-24 15:23:00,
2013-02-24 09:24:00,56.3,43.4,29.80,SE,133,5.0,7.0,62,0.00,,,0.00,Wunderground v.1.15,2013-02-24 15:24:00,
2013-02-24 09:25:00,56.5,43.6,29.80,SSE,154,5.0,7.0,62,0.00,,,0.00,Wunderground v.1.15,2013-02-24 15:25:00,
2013-02-24 09:29:00,56.9,43.6,29.80,SE,133,5.0,6.0,61,0.00,,,0.00,Wunderground v.1.15,2013-02-24 15:29:00,
2013-02-24 09:30:00,57.0,43.7,29.80,SE,138,5.0,9.0,61,0.00,,,0.00,Wunderground v.1.15,2013-02-24 15:30:00,
2013-02-24 09:31:00,57.0,43.7,29.80,SE,140,5.0,9.0,61,0.00,,,0.00,Wunderground v.1.15,2013-02-24 15:31:00,
2013-02-24 09:34:00,57.0,43.7,29.80,ESE,113,6.0,12.0,61,0.00,,,0.00,Wunderground v.1.15,2013-02-24 15:34:00,
2013-02-24 09:35:00,57.0,43.7,29.80,SE,144,6.0,12.0,61,0.00,,,0.00,Wunderground v.1.15,2013-02-24 15:35:00,
2013-02-24 09:40:00,57.2,43.9,29.80,SSE,158,6.0,6.0,61,0.00,,,0.00,Wunderground v.1.15,2013-02-24 15:40:00,
2013-02-24 09:41:00,57.3,44.0,29.80,SSE,168,5.0,6.0,61,0.00,,,0.00,Wunderground v.1.15,2013-02-24 15:41:00,
2013-02-24 09:44:00,58.0,44.2,29.80,ESE,106,4.0,6.0,60,0.00,,,0.00,Wunderground v.1.15,2013-02-24 15:44:00,
2013-02-24 09:47:00,58.3,44.5,29.80,ESE,107,3.0,6.0,60,0.00,,,0.00,Wunderground v.1.15,2013-02-24 15:47:00,
2013-02-24 09:49:00,58.4,44.1,29.80,ESE,123,3.0,8.0,59,0.00,,,0.00,Wunderground v.1.15,2013-02-24 15:49:00,
2013-02-24 09:52:00,58.4,45.0,29.80,ESE,119,5.0,10.0,61,0.00,,,0.00,Wunderground v.1.15,2013-02-24 15:52:00,
2013-02-24 09:55:00,58.3,44.9,29.80,SE,144,5.0,10.0,61,0.00,,,0.00,Wunderground v.1.15,2013-02-24 15:55:00,
2013-02-24 10:00:00,58.7,45.3,29.80,SE,137,7.0,8.0,61,0.00,,,0.00,Wunderground v.1.15,2013-02-24 16:00:00,
2013-02-24 10:01:00,58.7,45.3,29.79,SE,124,7.0,8.0,61,0.00,,,0.00,Wunderground v.1.15,2013-02-24 16:01:00,
2013-02-24 10:02:00,58.9,45.9,29.79,SSE,147,7.0,8.0,62,0.00,,,0.00,Wunderground v.1.15,2013-02-24 16:02:00,
2013-02-24 10:06:00,59.2,46.2,29.79,SSE,167,7.0,11.0,62,0.00,,,0.00,Wunderground v.1.15,2013-02-24 16:06:00,
2013-02-24 10:08:00,59.3,46.3,29.79,SE,143,7.0,11.0,62,0.00,,,0.00,Wunderground v.1.15,2013-02-24 16:08:00,
2013-02-24 10:09:00,59.5,46.5,29.79,SE,134,7.0,11.0,62,0.00,,,0.00,Wunderground v.1.15,2013-02-24 16:09:00,
2013-02-24 10:12:00,60.1,46.2,29.79,SSE,162,6.0,7.0,60,0.00,,,0.00,Wunderground v.1.15,2013-02-24 16:12:00,
2013-02-24 10:14:00,60.2,46.3,29.79,SE,136,6.0,8.0,60,0.00,,,0.00,Wunderground v.1.15,2013-02-24 16:14:00,
2013-02-24 10:16:00,60.2,46.7,29.80,SE,134,6.0,8.0,61,0.00,,,0.00,Wunderground v.1.15,2013-02-24 16:16:00,
2013-02-24 10:17:00,60.2,46.7,29.80,SSE,165,6.0,8.0,61,0.00,,,0.00,Wunderground v.1.15,2013-02-24 16:17:00,
2013-02-24 10:19:00,60.4,46.9,29.80,SE,143,6.0,11.0,61,0.00,,,0.00,Wunderground v.1.15,2013-02-24 16:19:00,
2013-02-24 10:20:00,60.5,47.4,29.80,SE,143,6.0,8.0,62,0.00,,,0.00,Wunderground v.1.15,2013-02-24 16:20:00,
2013-02-24 10:22:00,60.5,47.0,29.80,SSE,165,6.0,8.0,61,0.00,,,0.00,Wunderground v.1.15,2013-02-24 16:22:00,
2013-02-24 10:26:00,60.2,47.1,29.80,SSE,150,6.0,10.0,62,0.00,,,0.00,Wunderground v.1.15,2013-02-24 16:26:00,
2013-02-24 10:27:00,60.2,47.6,29.80,SSE,152,7.0,10.0,63,0.00,,,0.00,Wunderground v.1.15,2013-02-24 16:27:00,
2013-02-24 10:28:00,60.1,47.5,29.80,SE,133,7.0,12.0,63,0.00,,,0.00,Wunderground v.1.15,2013-02-24 16:28:00,
2013-02-24 10:31:00,60.1,47.9,29.79,SSE,148,7.0,8.0,64,0.00,,,0.00,Wunderground v.1.15,2013-02-24 16:31:00,
2013-02-24 10:34:00,60.4,48.6,29.79,SSE,160,8.0,13.0,65,0.00,,,0.00,Wunderground v.1.15,2013-02-24 16:34:00,
2013-02-24 10:36:00,60.7,49.3,29.79,SSE,150,8.0,13.0,66,0.00,,,0.00,Wunderground v.1.15,2013-02-24 16:36:00,
2013-02-24 10:37:00,60.9,49.5,29.79,SSE,155,8.0,13.0,66,0.00,,,0.00,Wunderground v.1.15,2013-02-24 16:37:00,
2013-02-24 10:39:00,60.4,49.4,29.79,SE,124,8.0,16.0,67,0.00,,,0.00,Wunderground v.1.15,2013-02-24 16:39:00,
2013-02-24 10:42:00,60.1,49.5,29.79,SSE,158,9.0,9.0,68,0.00,,,0.00,Wunderground v.1.15,2013-02-24 16:42:00,
2013-02-24 10:44:00,60.2,49.6,29.79,ESE,114,9.0,11.0,68,0.00,,,0.00,Wunderground v.1.15,2013-02-24 16:44:00,
2013-02-24 10:45:00,60.4,49.8,29.79,ESE,121,10.0,11.0,68,0.00,,,0.00,Wunderground v.1.15,2013-02-24 16:45:00,
2013-02-24 10:47:00,60.9,49.9,29.79,SSE,148,9.0,11.0,67,0.00,,,0.00,Wunderground v.1.15,2013-02-24 16:47:00,
2013-02-24 10:51:00,61.6,50.1,29.79,South,191,7.0,7.0,66,0.00,,,0.00,Wunderground v.1.15,2013-02-24 16:51:00,
2013-02-24 10:52:00,61.5,49.6,29.79,SSE,151,7.0,7.0,65,0.00,,,0.00,Wunderground v.1.15,2013-02-24 16:52:00,
2013-02-24 10:54:00,61.3,49.8,29.79,ESE,123,8.0,10.0,66,0.00,,,0.00,Wunderground v.1.15,2013-02-24 16:54:00,
2013-02-24 10:55:00,61.5,50.4,29.79,SSE,164,7.0,10.0,67,0.00,,,0.00,Wunderground v.1.15,2013-02-24 16:55:00,
2013-02-24 10:57:00,61.8,50.3,29.79,SE,137,7.0,10.0,66,0.00,,,0.00,Wunderground v.1.15,2013-02-24 16:57:00,
2013-02-24 10:59:00,62.0,50.1,29.79,SE,143,8.0,13.0,65,0.00,,,0.00,Wunderground v.1.15,2013-02-24 16:59:00,
2013-02-24 11:01:00,62.1,50.6,29.78,South,174,9.0,12.0,66,0.00,,,0.00,Wunderground v.1.15,2013-02-24 17:01:00,
2013-02-24 11:02:00,62.3,50.8,29.78,SE,145,8.0,12.0,66,0.00,,,0.00,Wunderground v.1.15,2013-02-24 17:02:00,
2013-02-24 11:03:00,62.1,50.6,29.78,SSE,161,9.0,12.0,66,0.00,,,0.00,Wunderground v.1.15,2013-02-24 17:03:00,
2013-02-24 11:05:00,62.1,51.0,29.78,ESE,120,9.0,12.0,67,0.00,,,0.00,Wunderground v.1.15,2013-02-24 17:05:00,
2013-02-24 11:07:00,62.0,50.9,29.78,SE,130,10.0,13.0,67,0.00,,,0.00,Wunderground v.1.15,2013-02-24 17:07:00,
2013-02-24 11:09:00,61.8,50.3,29.78,South,172,10.0,13.0,66,0.00,,,0.00,Wunderground v.1.15,2013-02-24 17:09:00,
2013-02-24 11:10:00,62.0,50.9,29.78,SE,131,10.0,13.0,67,0.00,,,0.00,Wunderground v.1.15,2013-02-24 17:10:00,
2013-02-24 11:14:00,62.4,51.3,29.78,SSW,192,9.0,17.0,67,0.00,,,0.00,Wunderground v.1.15,2013-02-24 17:14:00,
2013-02-24 11:16:00,62.6,50.7,29.78,SE,140,9.0,17.0,65,0.00,,,0.00,Wunderground v.1.15,2013-02-24 17:16:00,
2013-02-24 11:17:00,62.4,50.5,29.78,SSE,160,9.0,17.0,65,0.00,,,0.00,Wunderground v.1.15,2013-02-24 17:17:00,
2013-02-24 11:19:00,62.3,50.8,29.78,SW,215,8.0,17.0,66,0.00,,,0.00,Wunderground v.1.15,2013-02-24 17:19:00,
2013-02-24 11:23:00,62.1,50.6,29.78,SSW,193,8.0,14.0,66,0.00,,,0.00,Wunderground v.1.15,2013-02-24 17:23:00,
2013-02-24 11:24:00,62.1,50.6,29.78,South,169,9.0,14.0,66,0.00,,,0.00,Wunderground v.1.15,2013-02-24 17:24:00,
2013-02-24 11:25:00,62.1,51.0,29.78,South,189,9.0,14.0,67,0.00,,,0.00,Wunderground v.1.15,2013-02-24 17:25:00,
2013-02-24 11:26:00,62.4,50.9,29.78,ESE,106,8.0,14.0,66,0.00,,,0.00,Wunderground v.1.15,2013-02-24 17:26:00,
2013-02-24 11:30:00,63.1,51.1,29.78,SE,128,8.0,8.0,65,0.00,,,0.00,Wunderground v.1.15,2013-02-24 17:30:00,
2013-02-24 11:31:00,63.2,51.2,29.77,SSE,148,7.0,8.0,65,0.00,,,0.00,Wunderground v.1.15,2013-02-24 17:31:00,
2013-02-24 11:32:00,63.2,51.2,29.77,SSE,155,7.0,8.0,65,0.00,,,0.00,Wunderground v.1.15,2013-02-24 17:32:00,
2013-02-24 11:33:00,63.2,51.2,29.77,SSE,164,7.0,13.0,65,0.00,,,0.00,Wunderground v.1.15,2013-02-24 17:33:00,
2013-02-24 11:36:00,63.2,51.6,29.77,South,178,8.0,13.0,66,0.00,,,0.00,Wunderground v.1.15,2013-02-24 17:36:00,
2013-02-24 11:39:00,63.2,51.2,29.77,South,169,8.0,14.0,65,0.00,,,0.00,Wunderground v.1.15,2013-02-24 17:39:00,
2013-02-24 11:41:00,63.1,51.6,29.77,South,174,9.0,11.0,66,0.00,,,0.00,Wunderground v.1.15,2013-02-24 17:41:00,
2013-02-24 11:42:00,63.1,51.6,29.77,SSE,160,9.0,11.0,66,0.00,,,0.00,Wunderground v.1.15,2013-02-24 17:42:00,
2013-02-24 11:43:00,62.9,51.4,29.77,South,179,9.0,13.0,66,0.00,,,0.00,Wunderground v.1.15,2013-02-24 17:43:00,
2013-02-24 11:44:00,62.9,51.4,29.77,SSW,200,9.0,13.0,66,0.00,,,0.00,Wunderground v.1.15,2013-02-24 17:44:00,
2013-02-24 11:48:00,63.5,51.1,29.77,SSE,152,9.0,13.0,64,0.00,,,0.00,Wunderground v.1.15,2013-02-24 17:48:00,
2013-02-24 11:49:00,63.5,51.5,29.77,SSW,212,9.0,13.0,65,0.00,,,0.00,Wunderground v.1.15,2013-02-24 17:49:00,
2013-02-24 11:51:00,63.2,51.2,29.77,South,175,9.0,12.0,65,0.00,,,0.00,Wunderground v.1.15,2013-02-24 17:51:00,
2013-02-24 11:56:00,63.4,51.8,29.77,SSE,157,8.0,12.0,66,0.00,,,0.00,Wunderground v.1.15,2013-02-24 17:56:00,
2013-02-24 11:59:00,63.7,51.7,29.77,South,185,9.0,13.0,65,0.00,,,0.00,Wunderground v.1.15,2013-02-24 17:59:00,
2013-02-24 12:00:00,64.0,52.0,29.77,SW,224,8.0,8.0,65,0.00,,,0.00,Wunderground v.1.15,2013-02-24 18:00:00,
2013-02-24 12:01:00,64.3,52.3,29.76,South,171,8.0,13.0,65,0.00,,,0.00,Wunderground v.1.15,2013-02-24 18:01:00,
2013-02-24 12:05:00,64.0,51.6,29.76,South,169,9.0,16.0,64,0.00,,,0.00,Wunderground v.1.15,2013-02-24 18:05:00,
2013-02-24 12:06:00,64.0,52.0,29.76,SSW,212,9.0,16.0,65,0.00,,,0.00,Wunderground v.1.15,2013-02-24 18:06:00,
2013-02-24 12:07:00,64.0,52.0,29.76,SW,220,9.0,16.0,65,0.00,,,0.00,Wunderground v.1.15,2013-02-24 18:07:00,
2013-02-24 12:10:00,64.2,52.2,29.76,South,191,9.0,9.0,65,0.00,,,0.00,Wunderground v.1.15,2013-02-24 18:10:00,
2013-02-24 12:11:00,64.2,52.2,29.76,South,169,9.0,12.0,65,0.00,,,0.00,Wunderground v.1.15,2013-02-24 18:11:00,
2013-02-24 12:12:00,64.3,51.9,29.76,South,189,9.0,13.0,64,0.00,,,0.00,Wunderground v.1.15,2013-02-24 18:12:00,
2013-02-24 12:15:00,64.5,52.0,29.76,SSW,209,8.0,13.0,64,0.00,,,0.00,Wunderground v.1.15,2013-02-24 18:15:00,
2013-02-24 12:17:00,64.5,52.0,29.75,SSW,213,9.0,16.0,64,0.00,,,0.00,Wunderground v.1.15,2013-02-24 18:17:00,
2013-02-24 12:18:00,64.5,52.0,29.75,South,182,9.0,16.0,64,0.00,,,0.00,Wunderground v.1.15,2013-02-24 18:18:00,
2013-02-24 12:21:00,64.3,51.9,29.75,South,181,8.0,8.0,64,0.00,,,0.00,Wunderground v.1.15,2013-02-24 18:21:00,
2013-02-24 12:23:00,64.2,52.2,29.75,SSW,206,7.0,12.0,65,0.00,,,0.00,Wunderground v.1.15,2013-02-24 18:23:00,
2013-02-24 12:25:00,64.2,52.2,29.75,SSW,195,7.0,12.0,65,0.00,,,0.00,Wunderground v.1.15,2013-02-24 18:25:00,
2013-02-24 12:26:00,64.2,52.2,29.75,South,174,7.0,12.0,65,0.00,,,0.00,Wunderground v.1.15,2013-02-24 18:26:00,
2013-02-24 12:30:00,64.7,52.2,29.74,SSW,196,6.0,6.0,64,0.00,,,0.00,Wunderground v.1.15,2013-02-24 18:30:00,
2013-02-24 12:32:00,64.7,51.8,29.74,SE,144,6.0,12.0,63,0.00,,,0.00,Wunderground v.1.15,2013-02-24 18:32:00,
2013-02-24 12:34:00,65.0,52.5,29.74,South,181,6.0,12.0,64,0.00,,,0.00,Wunderground v.1.15,2013-02-24 18:34:00,
2013-02-24 12:39:00,65.3,51.9,29.74,SE,140,7.0,12.0,62,0.00,,,0.00,Wunderground v.1.15,2013-02-24 18:39:00,
2013-02-24 12:40:00,65.0,51.7,29.74,SSE,164,7.0,7.0,62,0.00,,,0.00,Wunderground v.1.15,2013-02-24 18:40:00,
2013-02-24 12:43:00,64.7,52.2,29.74,SSE,154,7.0,11.0,64,0.00,,,0.00,Wunderground v.1.15,2013-02-24 18:43:00,
2013-02-24 12:44:00,64.5,51.6,29.74,SSE,157,7.0,11.0,63,0.00,,,0.00,Wunderground v.1.15,2013-02-24 18:44:00,
2013-02-24 12:49:00,64.7,52.2,29.72,SSW,210,7.0,11.0,64,0.00,,,0.00,Wunderground v.1.15,2013-02-24 18:49:00,
2013-02-24 12:50:00,64.8,51.9,29.72,SSE,162,7.0,10.0,63,0.00,,,0.00,Wunderground v.1.15,2013-02-24 18:50:00,
2013-02-24 12:51:00,64.8,51.9,29.72,South,176,7.0,10.0,63,0.00,,,0.00,Wunderground v.1.15,2013-02-24 18:51:00,
2013-02-24 12:52:00,65.0,52.1,29.72,South,185,7.0,10.0,63,0.00,,,0.00,Wunderground v.1.15,2013-02-24 18:52:00,
2013-02-24 12:56:00,65.2,52.3,29.72,SSE,167,7.0,10.0,63,0.00,,,0.00,Wunderground v.1.15,2013-02-24 18:56:00,
2013-02-24 12:57:00,65.2,52.3,29.72,SE,145,7.0,11.0,63,0.00,,,0.00,Wunderground v.1.15,2013-02-24 18:57:00,
2013-02-24 13:01:00,64.8,52.3,29.72,SSW,198,7.0,13.0,64,0.00,,,0.00,Wunderground v.1.15,2013-02-24 19:01:00,
2013-02-24 13:02:00,65.0,52.5,29.72,SSE,151,7.0,13.0,64,0.00,,,0.00,Wunderground v.1.15,2013-02-24 19:02:00,
2013-02-24 13:03:00,65.2,52.7,29.72,SE,138,7.0,13.0,64,0.00,,,0.00,Wunderground v.1.15,2013-02-24 19:03:00,
2013-02-24 13:05:00,65.2,52.3,29.72,SW,223,7.0,13.0,63,0.00,,,0.00,Wunderground v.1.15,2013-02-24 19:05:00,
2013-02-24 13:08:00,65.0,52.1,29.72,SSE,151,7.0,13.0,63,0.00,,,0.00,Wunderground v.1.15,2013-02-24 19:08:00,
2013-02-24 13:11:00,65.0,52.5,29.72,SSE,152,7.0,8.0,64,0.00,,,0.00,Wunderground v.1.15,2013-02-24 19:11:00,
2013-02-24 13:12:00,65.0,52.5,29.72,SSE,168,7.0,8.0,64,0.00,,,0.00,Wunderground v.1.15,2013-02-24 19:12:00,
2013-02-24 13:13:00,64.8,52.3,29.72,SE,137,8.0,12.0,64,0.00,,,0.00,Wunderground v.1.15,2013-02-24 19:13:00,
2013-02-24 13:14:00,64.7,52.7,29.72,South,184,8.0,12.0,65,0.00,,,0.00,Wunderground v.1.15,2013-02-24 19:14:00,
2013-02-24 13:17:00,64.8,52.8,29.70,SSE,160,7.0,12.0,65,0.00,,,0.00,Wunderground v.1.15,2013-02-24 19:17:00,
2013-02-24 13:18:00,64.8,52.8,29.70,SSE,158,7.0,12.0,65,0.00,,,0.00,Wunderground v.1.15,2013-02-24 19:18:00,
2013-02-24 13:20:00,65.3,52.8,29.70,SSE,151,8.0,8.0,64,0.00,,,0.00,Wunderground v.1.15,2013-02-24 19:20:00,
2013-02-24 13:22:00,65.5,52.6,29.70,SSE,155,7.0,8.0,63,0.00,,,0.00,Wunderground v.1.15,2013-02-24 19:22:00,
2013-02-24 13:23:00,65.6,52.7,29.70,SE,136,7.0,9.0,63,0.00,,,0.00,Wunderground v.1.15,2013-02-24 19:23:00,
2013-02-24 13:24:00,65.5,52.6,29.70,SE,124,7.0,9.0,63,0.00,,,0.00,Wunderground v.1.15,2013-02-24 19:24:00,
2013-02-24 13:29:00,66.4,53.0,29.70,South,178,6.0,9.0,62,0.00,,,0.00,Wunderground v.1.15,2013-02-24 19:29:00,
2013-02-24 13:30:00,66.9,53.5,29.69,South,181,6.0,7.0,62,0.00,,,0.00,Wunderground v.1.15,2013-02-24 19:30:00,
2013-02-24 13:31:00,66.8,52.5,29.69,SE,136,6.0,8.0,60,0.00,,,0.00,Wunderground v.1.15,2013-02-24 19:31:00,
2013-02-24 13:34:00,66.6,52.7,29.69,South,174,6.0,8.0,61,0.00,,,0.00,Wunderground v.1.15,2013-02-24 19:34:00,
2013-02-24 13:37:00,66.6,52.7,29.69,SE,138,6.0,11.0,61,0.00,,,0.00,Wunderground v.1.15,2013-02-24 19:37:00,
2013-02-24 13:39:00,66.4,52.5,29.69,ESE,123,7.0,11.0,61,0.00,,,0.00,Wunderground v.1.15,2013-02-24 19:39:00,
2013-02-24 13:41:00,66.6,53.2,29.69,SE,133,7.0,11.0,62,0.00,,,0.00,Wunderground v.1.15,2013-02-24 19:41:00,
2013-02-24 13:42:00,66.6,53.2,29.69,South,169,7.0,11.0,62,0.00,,,0.00,Wunderground v.1.15,2013-02-24 19:42:00,
2013-02-24 13:45:00,66.6,53.2,29.69,SSW,209,8.0,11.0,62,0.00,,,0.00,Wunderground v.1.15,2013-02-24 19:45:00,
2013-02-24 13:47:00,66.8,53.4,29.68,SE,140,8.0,11.0,62,0.00,,,0.00,Wunderground v.1.15,2013-02-24 19:47:00,
2013-02-24 13:48:00,66.6,53.2,29.68,ESE,117,8.0,12.0,62,0.00,,,0.00,Wunderground v.1.15,2013-02-24 19:48:00,
2013-02-24 13:49:00,66.4,53.0,29.68,SE,131,8.0,12.0,62,0.00,,,0.00,Wunderground v.1.15,2013-02-24 19:49:00,
2013-02-24 13:53:00,66.1,52.3,29.68,SSE,161,9.0,11.0,61,0.00,,,0.00,Wunderground v.1.15,2013-02-24 19:53:00,
2013-02-24 13:54:00,66.3,52.9,29.68,SSE,167,8.0,11.0,62,0.00,,,0.00,Wunderground v.1.15,2013-02-24 19:54:00,
2013-02-24 13:56:00,66.8,53.4,29.68,South,182,8.0,11.0,62,0.00,,,0.00,Wunderground v.1.15,2013-02-24 19:56:00,
2013-02-24 13:58:00,66.9,53.0,29.68,South,185,8.0,11.0,61,0.00,,,0.00,Wunderground v.1.15,2013-02-24 19:58:00,
2013-02-24 13:59:00,66.9,53.0,29.68,SSE,147,8.0,11.0,61,0.00,,,0.00,Wunderground v.1.15,2013-02-24 19:59:00,
2013-02-24 14:02:00,66.9,53.0,29.66,SE,141,7.0,8.0,61,0.00,,,0.00,Wunderground v.1.15,2013-02-24 20:02:00,
2013-02-24 14:06:00,66.9,53.0,29.66,SSE,152,7.0,12.0,61,0.00,,,0.00,Wunderground v.1.15,2013-02-24 20:06:00,
2013-02-24 14:07:00,67.1,52.7,29.66,South,172,7.0,12.0,60,0.00,,,0.00,Wunderground v.1.15,2013-02-24 20:07:00,
2013-02-24 14:08:00,67.1,53.2,29.66,South,186,7.0,12.0,61,0.00,,,0.00,Wunderground v.1.15,2013-02-24 20:08:00,
2013-02-24 14:12:00,67.3,52.9,29.66,SSE,148,7.0,11.0,60,0.00,,,0.00,Wunderground v.1.15,2013-02-24 20:12:00,
2013-02-24 14:13:00,66.9,52.6,29.66,SSE,147,7.0,11.0,60,0.00,,,0.00,Wunderground v.1.15,2013-02-24 20:13:00,
2013-02-24 14:16:00,66.8,52.9,29.66,SE,144,7.0,11.0,61,0.00,,,0.00,Wunderground v.1.15,2013-02-24 20:16:00,
2013-02-24 14:17:00,66.8,53.4,29.66,SSE,155,6.0,11.0,62,0.00,,,0.00,Wunderground v.1.15,2013-02-24 20:17:00,
2013-02-24 14:21:00,66.6,52.7,29.66,SE,128,7.0,13.0,61,0.00,,,0.00,Wunderground v.1.15,2013-02-24 20:21:00,
2013-02-24 14:22:00,66.6,52.7,29.66,SSE,161,8.0,8.0,61,0.00,,,0.00,Wunderground v.1.15,2013-02-24 20:22:00,
2013-02-24 14:25:00,67.3,53.4,29.66,South,188,7.0,8.0,61,0.00,,,0.00,Wunderground v.1.15,2013-02-24 20:25:00,
2013-02-24 14:26:00,67.4,53.0,29.66,SW,224,7.0,8.0,60,0.00,,,0.00,Wunderground v.1.15,2013-02-24 20:26:00,
2013-02-24 14:28:00,67.4,53.5,29.66,SSE,161,7.0,10.0,61,0.00,,,0.00,Wunderground v.1.15,2013-02-24 20:28:00,
2013-02-24 14:31:00,67.3,53.4,29.65,ESE,123,7.0,10.0,61,0.00,,,0.00,Wunderground v.1.15,2013-02-24 20:31:00,
2013-02-24 14:34:00,67.3,52.9,29.65,SE,128,8.0,12.0,60,0.00,,,0.00,Wunderground v.1.15,2013-02-24 20:34:00,
2013-02-24 14:35:00,67.3,53.4,29.65,ESE,117,7.0,12.0,61,0.00,,,0.00,Wunderground v.1.15,2013-02-24 20:35:00,
2013-02-24 14:41:00,67.4,53.5,29.65,ESE,123,7.0,12.0,61,0.00,,,0.00,Wunderground v.1.15,2013-02-24 20:41:00,
2013-02-24 14:42:00,67.4,53.5,29.65,SE,144,7.0,7.0,61,0.00,,,0.00,Wunderground v.1.15,2013-02-24 20:42:00,
2013-02-24 14:47:00,67.6,54.1,29.64,SSE,147,6.0,8.0,62,0.00,,,0.00,Wunderground v.1.15,2013-02-24 20:47:00,
2013-02-24 14:48:00,67.6,54.1,29.64,SSE,168,6.0,8.0,62,0.00,,,0.00,Wunderground v.1.15,2013-02-24 20:48:00,
2013-02-24 14:49:00,67.3,53.4,29.64,SE,131,7.0,16.0,61,0.00,,,0.00,Wunderground v.1.15,2013-02-24 20:49:00,
2013-02-24 14:51:00,67.1,54.1,29.64,SSE,168,8.0,8.0,63,0.00,,,0.00,Wunderground v.1.15,2013-02-24 20:51:00,
2013-02-24 14:53:00,67.3,53.8,29.64,SE,145,8.0,12.0,62,0.00,,,0.00,Wunderground v.1.15,2013-02-24 20:53:00,
2013-02-24 14:56:00,67.1,54.1,29.64,SE,138,8.0,12.0,63,0.00,,,0.00,Wunderground v.1.15,2013-02-24 20:56:00,
2013-02-24 14:57:00,67.3,54.3,29.64,SE,124,8.0,12.0,63,0.00,,,0.00,Wunderground v.1.15,2013-02-24 20:57:00,
2013-02-24 14:58:00,67.3,54.3,29.64,SE,144,8.0,12.0,63,0.00,,,0.00,Wunderground v.1.15,2013-02-24 20:58:00,
2013-02-24 14:59:00,67.4,54.4,29.64,SSE,162,7.0,12.0,63,0.00,,,0.00,Wunderground v.1.15,2013-02-24 20:59:00,
2013-02-24 15:03:00,67.3,53.4,29.63,SSE,160,8.0,13.0,61,0.00,,,0.00,Wunderground v.1.15,2013-02-24 21:03:00,
2013-02-24 15:04:00,67.3,53.4,29.63,SE,128,8.0,13.0,61,0.00,,,0.00,Wunderground v.1.15,2013-02-24 21:04:00,
2013-02-24 15:07:00,67.4,53.5,29.63,SSE,152,8.0,13.0,61,0.00,,,0.00,Wunderground v.1.15,2013-02-24 21:07:00,
2013-02-24 15:08:00,67.6,53.7,29.63,SSE,167,9.0,13.0,61,0.00,,,0.00,Wunderground v.1.15,2013-02-24 21:08:00,
2013-02-24 15:12:00,67.8,53.4,29.63,SSE,167,9.0,13.0,60,0.00,,,0.00,Wunderground v.1.15,2013-02-24 21:12:00,
2013-02-24 15:13:00,67.8,53.4,29.63,SSE,161,8.0,13.0,60,0.00,,,0.00,Wunderground v.1.15,2013-02-24 21:13:00,
2013-02-24 15:14:00,67.8,53.4,29.63,South,172,8.0,13.0,60,0.00,,,0.00,Wunderground v.1.15,2013-02-24 21:14:00,
2013-02-24 15:17:00,67.8,53.9,29.62,ESE,121,9.0,13.0,61,0.00,,,0.00,Wunderground v.1.15,2013-02-24 21:17:00,
2013-02-24 15:21:00,67.9,54.0,29.62,SE,131,10.0,10.0,61,0.00,,,0.00,Wunderground v.1.15,2013-02-24 21:21:00,
2013-02-24 15:22:00,67.9,54.0,29.62,SSE,162,10.0,11.0,61,0.00,,,0.00,Wunderground v.1.15,2013-02-24 21:22:00,
2013-02-24 15:24:00,67.6,53.7,29.62,SE,128,10.0,11.0,61,0.00,,,0.00,Wunderground v.1.15,2013-02-24 21:24:00,
2013-02-24 15:27:00,67.6,54.1,29.62,SSE,157,10.0,11.0,62,0.00,,,0.00,Wunderground v.1.15,2013-02-24 21:27:00,
2013-02-24 15:28:00,67.4,53.9,29.62,SE,145,9.0,11.0,62,0.00,,,0.00,Wunderground v.1.15,2013-02-24 21:28:00,
2013-02-24 15:32:00,67.3,54.3,29.62,SSE,164,9.0,16.0,63,0.00,,,0.00,Wunderground v.1.15,2013-02-24 21:32:00,
2013-02-24 15:33:00,67.1,54.1,29.62,SSE,150,9.0,16.0,63,0.00,,,0.00,Wunderground v.1.15,2013-02-24 21:33:00,
2013-02-24 15:34:00,67.1,54.1,29.62,SE,134,9.0,16.0,63,0.00,,,0.00,Wunderground v.1.15,2013-02-24 21:34:00,
2013-02-24 15:37:00,66.9,54.3,29.62,SSE,150,9.0,16.0,64,0.00,,,0.00,Wunderground v.1.15,2013-02-24 21:37:00,
2013-02-24 15:41:00,67.1,54.5,29.62,SSE,165,10.0,10.0,64,0.00,,,0.00,Wunderground v.1.15,2013-02-24 21:41:00,
2013-02-24 15:42:00,67.3,54.7,29.62,SSW,192,10.0,10.0,64,0.00,,,0.00,Wunderground v.1.15,2013-02-24 21:42:00,
2013-02-24 15:43:00,67.4,54.8,29.62,SSE,167,10.0,12.0,64,0.00,,,0.00,Wunderground v.1.15,2013-02-24 21:43:00,
2013-02-24 15:47:00,67.6,54.6,29.61,SE,127,10.0,12.0,63,0.00,,,0.00,Wunderground v.1.15,2013-02-24 21:47:00,
2013-02-24 15:48:00,67.6,54.6,29.61,SE,140,10.0,12.0,63,0.00,,,0.00,Wunderground v.1.15,2013-02-24 21:48:00,
2013-02-24 15:49:00,67.6,54.6,29.61,SE,145,9.0,12.0,63,0.00,,,0.00,Wunderground v.1.15,2013-02-24 21:49:00,
2013-02-24 15:54:00,68.1,55.0,29.61,SE,130,8.0,9.0,63,0.00,,,0.00,Wunderground v.1.15,2013-02-24 21:54:00,
2013-02-24 15:55:00,68.3,55.2,29.61,ESE,121,8.0,9.0,63,0.00,,,0.00,Wunderground v.1.15,2013-02-24 21:55:00,
2013-02-24 15:56:00,68.4,54.9,29.61,SE,127,8.0,10.0,62,0.00,,,0.00,Wunderground v.1.15,2013-02-24 21:56:00,
2013-02-24 16:01:00,68.3,55.2,29.60,SSE,150,8.0,8.0,63,0.00,,,0.00,Wunderground v.1.15,2013-02-24 22:01:00,
2013-02-24 16:02:00,68.3,55.2,29.60,SSE,147,8.0,8.0,63,0.00,,,0.00,Wunderground v.1.15,2013-02-24 22:02:00,
2013-02-24 16:03:00,68.3,55.2,29.60,SE,141,8.0,8.0,63,0.00,,,0.00,Wunderground v.1.15,2013-02-24 22:03:00,
2013-02-24 16:07:00,68.1,55.0,29.60,SSE,168,9.0,14.0,63,0.00,,,0.00,Wunderground v.1.15,2013-02-24 22:07:00,
2013-02-24 16:08:00,68.1,55.0,29.60,SE,138,9.0,14.0,63,0.00,,,0.00,Wunderground v.1.15,2013-02-24 22:08:00,
2013-02-24 16:12:00,67.6,55.4,29.60,South,179,9.0,11.0,65,0.00,,,0.00,Wunderground v.1.15,2013-02-24 22:12:00,
2013-02-24 16:13:00,67.6,55.4,29.60,SSE,162,9.0,11.0,65,0.00,,,0.00,Wunderground v.1.15,2013-02-24 22:13:00,
2013-02-24 16:14:00,67.6,55.4,29.60,SSE,154,8.0,11.0,65,0.00,,,0.00,Wunderground v.1.15,2013-02-24 22:14:00,
2013-02-24 16:19:00,67.6,55.4,29.61,SSE,152,7.0,11.0,65,0.00,,,0.00,Wunderground v.1.15,2013-02-24 22:19:00,
2013-02-24 16:21:00,67.4,55.2,29.61,SSE,152,6.0,6.0,65,0.00,,,0.00,Wunderground v.1.15,2013-02-24 22:21:00,
2013-02-24 16:24:00,67.4,55.6,29.61,SE,128,5.0,13.0,66,0.00,,,0.00,Wunderground v.1.15,2013-02-24 22:24:00,
2013-02-24 16:26:00,67.4,55.6,29.61,SE,145,6.0,13.0,66,0.00,,,0.00,Wunderground v.1.15,2013-02-24 22:26:00,
2013-02-24 16:28:00,67.3,56.0,29.61,SSE,152,7.0,13.0,67,0.00,,,0.00,Wunderground v.1.15,2013-02-24 22:28:00,
2013-02-24 16:29:00,67.3,56.0,29.61,SSW,198,7.0,13.0,67,0.00,,,0.00,Wunderground v.1.15,2013-02-24 22:29:00,
2013-02-24 16:33:00,66.9,56.0,29.59,SSE,152,8.0,13.0,68,0.00,,,0.00,Wunderground v.1.15,2013-02-24 22:33:00,
2013-02-24 16:34:00,66.8,55.9,29.59,South,175,8.0,14.0,68,0.00,,,0.00,Wunderground v.1.15,2013-02-24 22:34:00,
2013-02-24 16:36:00,66.6,56.1,29.59,SE,143,8.0,14.0,69,0.00,,,0.00,Wunderground v.1.15,2013-02-24 22:36:00,
2013-02-24 16:38:00,66.6,56.1,29.59,SSE,157,8.0,14.0,69,0.00,,,0.00,Wunderground v.1.15,2013-02-24 22:38:00,
2013-02-24 16:41:00,66.4,56.3,29.59,SE,140,8.0,12.0,70,0.00,,,0.00,Wunderground v.1.15,2013-02-24 22:41:00,
2013-02-24 16:43:00,66.1,56.0,29.59,South,184,8.0,12.0,70,0.00,,,0.00,Wunderground v.1.15,2013-02-24 22:43:00,
2013-02-24 16:46:00,66.3,56.6,29.60,SE,144,8.0,12.0,71,0.00,,,0.00,Wunderground v.1.15,2013-02-24 22:46:00,
2013-02-24 16:49:00,66.1,56.4,29.60,South,169,7.0,12.0,71,0.00,,,0.00,Wunderground v.1.15,2013-02-24 22:49:00,
2013-02-24 16:51:00,66.0,56.3,29.60,SSW,213,6.0,9.0,71,0.00,,,0.00,Wunderground v.1.15,2013-02-24 22:51:00,
2013-02-24 16:53:00,66.0,56.7,29.60,SE,128,6.0,9.0,72,0.00,,,0.00,Wunderground v.1.15,2013-02-24 22:53:00,
2013-02-24 16:55:00,65.8,56.5,29.60,SE,143,6.0,11.0,72,0.00,,,0.00,Wunderground v.1.15,2013-02-24 22:55:00,
2013-02-24 16:59:00,65.6,56.7,29.60,SE,138,7.0,11.0,73,0.00,,,0.00,Wunderground v.1.15,2013-02-24 22:59:00,
2013-02-24 17:01:00,65.5,56.6,29.60,SSE,147,8.0,8.0,73,0.00,,,0.00,Wunderground v.1.15,2013-02-24 23:01:00,
2013-02-24 17:02:00,65.5,56.6,29.60,SE,127,8.0,8.0,73,0.00,,,0.00,Wunderground v.1.15,2013-02-24 23:02:00,
2013-02-24 17:05:00,65.3,56.8,29.60,SSE,157,8.0,13.0,74,0.00,,,0.00,Wunderground v.1.15,2013-02-24 23:05:00,
2013-02-24 17:07:00,65.3,56.8,29.60,SE,127,8.0,13.0,74,0.00,,,0.00,Wunderground v.1.15,2013-02-24 23:07:00,
2013-02-24 17:08:00,65.3,56.8,29.60,SSE,155,7.0,13.0,74,0.00,,,0.00,Wunderground v.1.15,2013-02-24 23:08:00,
2013-02-24 17:11:00,65.3,56.8,29.60,SSE,150,7.0,12.0,74,0.00,,,0.00,Wunderground v.1.15,2013-02-24 23:11:00,
2013-02-24 17:12:00,65.3,56.8,29.60,SE,145,7.0,12.0,74,0.00,,,0.00,Wunderground v.1.15,2013-02-24 23:12:00,
2013-02-24 17:15:00,65.3,56.8,29.60,SSE,151,7.0,12.0,74,0.00,,,0.00,Wunderground v.1.15,2013-02-24 23:15:00,
2013-02-24 17:17:00,65.3,56.8,29.60,SSE,161,6.0,12.0,74,0.00,,,0.00,Wunderground v.1.15,2013-02-24 23:17:00,
2013-02-24 17:21:00,65.3,57.2,29.60,South,188,6.0,8.0,75,0.00,,,0.00,Wunderground v.1.15,2013-02-24 23:21:00,
2013-02-24 17:22:00,65.3,57.2,29.60,SSE,151,6.0,8.0,75,0.00,,,0.00,Wunderground v.1.15,2013-02-24 23:22:00,
2013-02-24 17:24:00,65.2,57.1,29.60,SSE,162,5.0,8.0,75,0.00,,,0.00,Wunderground v.1.15,2013-02-24 23:24:00,
2013-02-24 17:26:00,65.2,57.1,29.60,SSE,167,5.0,8.0,75,0.00,,,0.00,Wunderground v.1.15,2013-02-24 23:26:00,
2013-02-24 17:29:00,65.2,57.1,29.60,SSE,157,5.0,14.0,75,0.00,,,0.00,Wunderground v.1.15,2013-02-24 23:29:00,
2013-02-24 17:32:00,64.8,57.1,29.61,SE,131,6.0,11.0,76,0.00,,,0.00,Wunderground v.1.15,2013-02-24 23:32:00,
2013-02-24 17:33:00,64.8,57.1,29.61,SSE,161,6.0,11.0,76,0.00,,,0.00,Wunderground v.1.15,2013-02-24 23:33:00,
2013-02-24 17:35:00,64.8,57.1,29.61,SE,130,6.0,11.0,76,0.00,,,0.00,Wunderground v.1.15,2013-02-24 23:35:00,
2013-02-24 17:38:00,64.7,57.3,29.61,SSE,147,7.0,11.0,77,0.00,,,0.00,Wunderground v.1.15,2013-02-24 23:38:00,
2013-02-24 17:39:00,64.7,57.3,29.61,South,169,7.0,11.0,77,0.00,,,0.00,Wunderground v.1.15,2013-02-24 23:39:00,
2013-02-24 17:43:00,64.7,57.3,29.61,SE,145,6.0,7.0,77,0.00,,,0.00,Wunderground v.1.15,2013-02-24 23:43:00,
2013-02-24 17:44:00,64.7,57.3,29.61,SE,141,6.0,8.0,77,0.00,,,0.00,Wunderground v.1.15,2013-02-24 23:44:00,
2013-02-24 17:46:00,64.7,57.3,29.60,SE,130,6.0,8.0,77,0.00,,,0.00,Wunderground v.1.15,2013-02-24 23:46:00,
2013-02-24 17:49:00,64.5,57.5,29.60,South,176,6.0,9.0,78,0.00,,,0.00,Wunderground v.1.15,2013-02-24 23:49:00,
2013-02-24 17:51:00,64.5,57.5,29.60,SSE,147,5.0,9.0,78,0.00,,,0.00,Wunderground v.1.15,2013-02-24 23:51:00,
2013-02-24 17:55:00,64.5,57.5,29.60,SSE,161,5.0,9.0,78,0.00,,,0.00,Wunderground v.1.15,2013-02-24 23:55:00,
2013-02-24 17:56:00,64.5,57.5,29.60,SSE,161,5.0,9.0,78,0.00,,,0.00,Wunderground v.1.15,2013-02-24 23:56:00,
2013-02-24 17:57:00,64.5,57.5,29.60,SSE,154,4.0,9.0,78,0.00,,,0.00,Wunderground v.1.15,2013-02-24 23:57:00,
2013-02-24 17:59:00,64.7,57.7,29.60,SSE,161,4.0,9.0,78,0.00,,,0.00,Wunderground v.1.15,2013-02-24 23:59:00,
2013-02-24 18:01:00,64.5,57.8,29.61,SE,143,4.0,6.0,79,0.00,,,0.00,Wunderground v.1.15,2013-02-25 00:01:00,
2013-02-24 18:02:00,64.5,57.8,29.61,ESE,120,4.0,9.0,79,0.00,,,0.00,Wunderground v.1.15,2013-02-25 00:02:00,
2013-02-24 18:05:00,64.3,58.0,29.61,SSE,168,5.0,9.0,80,0.00,,,0.00,Wunderground v.1.15,2013-02-25 00:05:00,
2013-02-24 18:06:00,64.2,57.9,29.61,SE,126,6.0,9.0,80,0.00,,,0.00,Wunderground v.1.15,2013-02-25 00:06:00,
2013-02-24 18:07:00,64.0,57.7,29.61,SSE,161,6.0,9.0,80,0.00,,,0.00,Wunderground v.1.15,2013-02-25 00:07:00,
2013-02-24 18:11:00,63.7,57.8,29.61,SE,141,7.0,7.0,81,0.00,,,0.00,Wunderground v.1.15,2013-02-25 00:11:00,
2013-02-24 18:12:00,63.7,57.8,29.61,SE,145,6.0,7.0,81,0.00,,,0.00,Wunderground v.1.15,2013-02-25 00:12:00,
2013-02-24 18:14:00,63.7,57.8,29.61,SE,138,6.0,10.0,81,0.00,,,0.00,Wunderground v.1.15,2013-02-25 00:14:00,
2013-02-24 18:17:00,63.7,57.8,29.61,SSE,152,6.0,10.0,81,0.00,,,0.00,Wunderground v.1.15,2013-02-25 00:17:00,
2013-02-24 18:18:00,63.5,57.6,29.61,SE,124,6.0,10.0,81,0.00,,,0.00,Wunderground v.1.15,2013-02-25 00:18:00,
2013-02-24 18:21:00,63.5,57.9,29.61,SSE,164,6.0,6.0,82,0.00,,,0.00,Wunderground v.1.15,2013-02-25 00:21:00,
2013-02-24 18:23:00,63.5,57.9,29.61,SSE,147,6.0,10.0,82,0.00,,,0.00,Wunderground v.1.15,2013-02-25 00:23:00,
2013-02-24 18:24:00,63.4,57.8,29.61,SE,145,6.0,10.0,82,0.00,,,0.00,Wunderground v.1.15,2013-02-25 00:24:00,
2013-02-24 18:27:00,63.4,57.8,29.61,SSE,158,5.0,10.0,82,0.00,,,0.00,Wunderground v.1.15,2013-02-25 00:27:00,
2013-02-24 18:29:00,63.4,57.8,29.61,SSE,162,5.0,12.0,82,0.00,,,0.00,Wunderground v.1.15,2013-02-25 00:29:00,
2013-02-24 18:31:00,63.4,57.8,29.61,SE,130,5.0,11.0,82,0.00,,,0.00,Wunderground v.1.15,2013-02-25 00:31:00,
2013-02-24 18:32:00,63.4,57.8,29.61,SSE,148,6.0,11.0,82,0.00,,,0.00,Wunderground v.1.15,2013-02-25 00:32:00,
2013-02-24 18:34:00,63.4,57.8,29.61,SE,137,6.0,11.0,82,0.00,,,0.00,Wunderground v.1.15,2013-02-25 00:34:00,
2013-02-24 18:36:00,63.4,57.8,29.61,ESE,120,6.0,11.0,82,0.00,,,0.00,Wunderground v.1.15,2013-02-25 00:36:00,
2013-02-24 18:37:00,63.4,57.8,29.61,SE,140,6.0,11.0,82,0.00,,,0.00,Wunderground v.1.15,2013-02-25 00:37:00,
2013-02-24 18:38:00,63.4,57.8,29.61,SSE,157,6.0,11.0,82,0.00,,,0.00,Wunderground v.1.15,2013-02-25 00:38:00,
2013-02-24 18:41:00,63.4,57.8,29.61,SE,143,5.0,5.0,82,0.00,,,0.00,Wunderground v.1.15,2013-02-25 00:41:00,
2013-02-24 18:42:00,63.4,57.8,29.61,SE,141,5.0,7.0,82,0.00,,,0.00,Wunderground v.1.15,2013-02-25 00:42:00,
2013-02-24 18:44:00,63.5,57.9,29.61,SSE,150,5.0,7.0,82,0.00,,,0.00,Wunderground v.1.15,2013-02-25 00:44:00,
2013-02-24 18:49:00,63.5,57.9,29.61,SE,127,5.0,7.0,82,0.00,,,0.00,Wunderground v.1.15,2013-02-25 00:49:00,
2013-02-24 18:51:00,63.5,57.9,29.61,SE,140,5.0,11.0,82,0.00,,,0.00,Wunderground v.1.15,2013-02-25 00:51:00,
2013-02-24 18:52:00,63.5,57.9,29.61,SE,137,6.0,11.0,82,0.00,,,0.00,Wunderground v.1.15,2013-02-25 00:52:00,
2013-02-24 18:56:00,63.5,57.9,29.61,ESE,123,7.0,13.0,82,0.00,,,0.00,Wunderground v.1.15,2013-02-25 00:56:00,
2013-02-24 18:57:00,63.5,57.9,29.61,SSE,152,7.0,13.0,82,0.00,,,0.00,Wunderground v.1.15,2013-02-25 00:57:00,
2013-02-24 19:01:00,63.5,57.9,29.59,SE,138,6.0,7.0,82,0.00,,,0.00,Wunderground v.1.15,2013-02-25 01:01:00,
2013-02-24 19:02:00,63.5,57.9,29.59,SSE,152,6.0,8.0,82,0.00,,,0.00,Wunderground v.1.15,2013-02-25 01:02:00,
2013-02-24 19:07:00,63.5,57.9,29.59,SE,126,7.0,10.0,82,0.00,,,0.00,Wunderground v.1.15,2013-02-25 01:07:00,
2013-02-24 19:09:00,63.5,57.9,29.59,SE,126,7.0,10.0,82,0.00,,,0.00,Wunderground v.1.15,2013-02-25 01:09:00,
2013-02-24 19:12:00,63.7,58.1,29.59,South,179,7.0,12.0,82,0.00,,,0.00,Wunderground v.1.15,2013-02-25 01:12:00,
2013-02-24 19:14:00,63.7,58.1,29.59,SSE,147,8.0,12.0,82,0.00,,,0.00,Wunderground v.1.15,2013-02-25 01:14:00,
2013-02-24 19:15:00,63.7,58.1,29.59,SSE,152,8.0,12.0,82,0.00,,,0.00,Wunderground v.1.15,2013-02-25 01:15:00,
2013-02-24 19:16:00,63.7,58.1,29.59,SSE,147,7.0,12.0,82,0.00,,,0.00,Wunderground v.1.15,2013-02-25 01:16:00,
2013-02-24 19:21:00,63.7,58.1,29.59,SE,140,7.0,7.0,82,0.00,,,0.00,Wunderground v.1.15,2013-02-25 01:21:00,
2013-02-24 19:22:00,63.7,58.1,29.59,SE,144,6.0,7.0,82,0.00,,,0.00,Wunderground v.1.15,2013-02-25 01:22:00,
2013-02-24 19:27:00,63.4,57.8,29.59,SE,143,6.0,10.0,82,0.00,,,0.00,Wunderground v.1.15,2013-02-25 01:27:00,
2013-02-24 19:29:00,63.4,57.8,29.59,ESE,107,6.0,10.0,82,0.00,,,0.00,Wunderground v.1.15,2013-02-25 01:29:00,
2013-02-24 19:33:00,63.2,57.6,29.60,SE,130,8.0,8.0,82,0.00,,,0.00,Wunderground v.1.15,2013-02-25 01:33:00,
2013-02-24 19:34:00,63.1,57.5,29.60,SE,127,8.0,8.0,82,0.00,,,0.00,Wunderground v.1.15,2013-02-25 01:34:00,
2013-02-24 19:37:00,63.1,57.5,29.60,SE,131,8.0,8.0,82,0.00,,,0.00,Wunderground v.1.15,2013-02-25 01:37:00,
2013-02-24 19:38:00,63.1,57.5,29.60,SE,127,8.0,8.0,82,0.00,,,0.00,Wunderground v.1.15,2013-02-25 01:38:00,
2013-02-24 19:42:00,63.1,57.9,29.60,SSE,152,7.0,7.0,83,0.00,,,0.00,Wunderground v.1.15,2013-02-25 01:42:00,
2013-02-24 19:43:00,63.1,57.9,29.60,ESE,123,7.0,7.0,83,0.00,,,0.00,Wunderground v.1.15,2013-02-25 01:43:00,
2013-02-24 19:47:00,62.9,57.7,29.60,SE,140,6.0,7.0,83,0.00,,,0.00,Wunderground v.1.15,2013-02-25 01:47:00,
2013-02-24 19:52:00,62.9,57.7,29.60,SE,133,6.0,7.0,83,0.00,,,0.00,Wunderground v.1.15,2013-02-25 01:52:00,
2013-02-24 19:53:00,62.9,57.7,29.60,SE,127,6.0,8.0,83,0.00,,,0.00,Wunderground v.1.15,2013-02-25 01:53:00,
2013-02-24 19:57:00,62.9,57.7,29.60,SE,136,6.0,11.0,83,0.00,,,0.00,Wunderground v.1.15,2013-02-25 01:57:00,
2013-02-24 19:58:00,62.9,57.7,29.60,SSE,147,7.0,11.0,83,0.00,,,0.00,Wunderground v.1.15,2013-02-25 01:58:00,
2013-02-24 19:59:00,62.9,57.7,29.60,ESE,123,7.0,11.0,83,0.00,,,0.00,Wunderground v.1.15,2013-02-25 01:59:00,
2013-02-24 20:02:00,62.9,57.7,29.60,SE,140,6.0,8.0,83,0.00,,,0.00,Wunderground v.1.15,2013-02-25 02:02:00,
2013-02-24 20:03:00,62.9,57.7,29.60,SE,126,6.0,8.0,83,0.00,,,0.00,Wunderground v.1.15,2013-02-25 02:03:00,
2013-02-24 20:07:00,62.7,57.5,29.60,SE,130,6.0,10.0,83,0.00,,,0.00,Wunderground v.1.15,2013-02-25 02:07:00,
2013-02-24 20:08:00,62.7,57.5,29.60,SE,124,6.0,10.0,83,0.00,,,0.00,Wunderground v.1.15,2013-02-25 02:08:00,
2013-02-24 20:09:00,62.7,57.5,29.60,SSE,157,6.0,10.0,83,0.00,,,0.00,Wunderground v.1.15,2013-02-25 02:09:00,
2013-02-24 20:13:00,62.7,57.5,29.60,SE,143,7.0,8.0,83,0.00,,,0.00,Wunderground v.1.15,2013-02-25 02:13:00,
2013-02-24 20:14:00,62.7,57.5,29.60,SE,143,7.0,8.0,83,0.00,,,0.00,Wunderground v.1.15,2013-02-25 02:14:00,
2013-02-24 20:17:00,62.7,57.5,29.60,SE,133,7.0,9.0,83,0.00,,,0.00,Wunderground v.1.15,2013-02-25 02:17:00,
2013-02-24 20:19:00,62.7,57.8,29.60,SSE,147,7.0,12.0,84,0.00,,,0.00,Wunderground v.1.15,2013-02-25 02:19:00,
2013-02-24 20:23:00,62.7,57.8,29.60,SE,143,6.0,11.0,84,0.00,,,0.00,Wunderground v.1.15,2013-02-25 02:23:00,
2013-02-24 20:25:00,62.6,57.7,29.60,SE,134,7.0,11.0,84,0.00,,,0.00,Wunderground v.1.15,2013-02-25 02:25:00,
2013-02-24 20:26:00,62.6,57.7,29.60,SE,127,7.0,11.0,84,0.00,,,0.00,Wunderground v.1.15,2013-02-25 02:26:00,
2013-02-24 20:27:00,62.6,57.7,29.60,SE,137,7.0,11.0,84,0.00,,,0.00,Wunderground v.1.15,2013-02-25 02:27:00,
2013-02-24 20:30:00,62.6,58.0,29.60,SE,133,7.0,11.0,85,0.00,,,0.00,Wunderground v.1.15,2013-02-25 02:30:00,
2013-02-24 20:32:00,62.6,58.0,29.59,SE,141,7.0,7.0,85,0.00,,,0.00,Wunderground v.1.15,2013-02-25 02:32:00,
2013-02-24 20:34:00,62.6,58.0,29.59,SE,130,7.0,7.0,85,0.00,,,0.00,Wunderground v.1.15,2013-02-25 02:34:00,
2013-02-24 20:35:00,62.6,58.0,29.59,SE,134,6.0,7.0,85,0.00,,,0.00,Wunderground v.1.15,2013-02-25 02:35:00,
2013-02-24 20:38:00,62.6,58.0,29.59,SE,127,6.0,7.0,85,0.00,,,0.00,Wunderground v.1.15,2013-02-25 02:38:00,
2013-02-24 20:39:00,62.6,58.0,29.59,SSE,162,6.0,7.0,85,0.00,,,0.00,Wunderground v.1.15,2013-02-25 02:39:00,
2013-02-24 20:42:00,62.6,58.0,29.59,South,171,5.0,8.0,85,0.00,,,0.00,Wunderground v.1.15,2013-02-25 02:42:00,
2013-02-24 20:44:00,62.6,58.4,29.59,SE,133,5.0,11.0,86,0.00,,,0.00,Wunderground v.1.15,2013-02-25 02:44:00,
2013-02-24 20:45:00,62.6,58.4,29.59,SE,138,6.0,11.0,86,0.00,,,0.00,Wunderground v.1.15,2013-02-25 02:45:00,
2013-02-24 20:47:00,62.6,58.4,29.59,SE,133,6.0,11.0,86,0.00,,,0.00,Wunderground v.1.15,2013-02-25 02:47:00,
2013-02-24 20:48:00,62.4,58.2,29.59,SSE,148,6.0,11.0,86,0.00,,,0.00,Wunderground v.1.15,2013-02-25 02:48:00,
2013-02-24 20:49:00,62.4,58.2,29.59,SSE,147,6.0,11.0,86,0.00,,,0.00,Wunderground v.1.15,2013-02-25 02:49:00,
2013-02-24 20:52:00,62.4,58.2,29.59,SE,145,7.0,7.0,86,0.00,,,0.00,Wunderground v.1.15,2013-02-25 02:52:00,
2013-02-24 20:53:00,62.4,58.2,29.59,SE,134,6.0,8.0,86,0.00,,,0.00,Wunderground v.1.15,2013-02-25 02:53:00,
2013-02-24 20:54:00,62.4,58.2,29.59,SE,133,6.0,12.0,86,0.00,,,0.00,Wunderground v.1.15,2013-02-25 02:54:00,
2013-02-24 20:57:00,62.4,58.5,29.59,SSE,161,6.0,12.0,87,0.00,,,0.00,Wunderground v.1.15,2013-02-25 02:57:00,
2013-02-24 20:59:00,62.4,58.5,29.59,SE,141,6.0,12.0,87,0.00,,,0.00,Wunderground v.1.15,2013-02-25 02:59:00,
2013-02-24 21:01:00,62.3,58.4,29.59,ESE,123,6.0,8.0,87,0.00,,,0.00,Wunderground v.1.15,2013-02-25 03:01:00,
2013-02-24 21:02:00,62.3,58.4,29.59,SE,145,6.0,8.0,87,0.00,,,0.00,Wunderground v.1.15,2013-02-25 03:02:00,
2013-02-24 21:04:00,62.3,58.4,29.59,SSE,164,7.0,8.0,87,0.00,,,0.00,Wunderground v.1.15,2013-02-25 03:04:00,
2013-02-24 21:07:00,62.3,58.4,29.59,South,174,7.0,8.0,87,0.00,,,0.00,Wunderground v.1.15,2013-02-25 03:07:00,
2013-02-24 21:08:00,62.3,58.4,29.59,SE,137,6.0,8.0,87,0.00,,,0.00,Wunderground v.1.15,2013-02-25 03:08:00,
2013-02-24 21:09:00,62.3,58.4,29.59,SE,145,6.0,8.0,87,0.00,,,0.00,Wunderground v.1.15,2013-02-25 03:09:00,
2013-02-24 21:10:00,62.3,58.4,29.59,SE,124,6.0,8.0,87,0.00,,,0.00,Wunderground v.1.15,2013-02-25 03:10:00,
2013-02-24 21:13:00,62.1,58.2,29.59,SE,124,6.0,11.0,87,0.00,,,0.00,Wunderground v.1.15,2013-02-25 03:13:00,
2013-02-24 21:16:00,62.1,58.2,29.58,SE,145,6.0,11.0,87,0.00,,,0.00,Wunderground v.1.15,2013-02-25 03:16:00,
2013-02-24 21:18:00,62.1,58.2,29.58,SE,134,6.0,11.0,87,0.00,,,0.00,Wunderground v.1.15,2013-02-25 03:18:00,
2013-02-24 21:19:00,62.1,58.2,29.58,SE,127,6.0,11.0,87,0.00,,,0.00,Wunderground v.1.15,2013-02-25 03:19:00,
2013-02-24 21:23:00,62.1,58.2,29.58,South,174,6.0,13.0,87,0.00,,,0.00,Wunderground v.1.15,2013-02-25 03:23:00,
2013-02-24 21:24:00,62.1,58.2,29.58,SE,134,6.0,13.0,87,0.00,,,0.00,Wunderground v.1.15,2013-02-25 03:24:00,
2013-02-24 21:25:00,62.1,58.2,29.58,SSE,150,6.0,13.0,87,0.00,,,0.00,Wunderground v.1.15,2013-02-25 03:25:00,
2013-02-24 21:26:00,62.1,58.2,29.58,SE,143,6.0,13.0,87,0.00,,,0.00,Wunderground v.1.15,2013-02-25 03:26:00,
2013-02-24 21:29:00,62.1,58.2,29.58,SE,127,6.0,13.0,87,0.00,,,0.00,Wunderground v.1.15,2013-02-25 03:29:00,
2013-02-24 21:32:00,62.1,58.2,29.57,SSE,150,5.0,7.0,87,0.00,,,0.00,Wunderground v.1.15,2013-02-25 03:32:00,
2013-02-24 21:33:00,62.1,58.2,29.57,ESE,121,5.0,7.0,87,0.00,,,0.00,Wunderground v.1.15,2013-02-25 03:33:00,
2013-02-24 21:34:00,62.1,58.2,29.57,SE,128,5.0,7.0,87,0.00,,,0.00,Wunderground v.1.15,2013-02-25 03:34:00,
2013-02-24 21:38:00,62.1,58.2,29.57,SE,136,6.0,7.0,87,0.00,,,0.00,Wunderground v.1.15,2013-02-25 03:38:00,
2013-02-24 21:40:00,62.1,58.2,29.57,SE,143,6.0,7.0,87,0.00,,,0.00,Wunderground v.1.15,2013-02-25 03:40:00,
2013-02-24 21:42:00,62.1,58.2,29.57,SSE,148,7.0,10.0,87,0.00,,,0.00,Wunderground v.1.15,2013-02-25 03:42:00,
2013-02-24 21:43:00,62.1,58.2,29.57,SE,143,7.0,10.0,87,0.00,,,0.00,Wunderground v.1.15,2013-02-25 03:43:00,
2013-02-24 21:44:00,62.1,58.2,29.57,SSE,152,7.0,10.0,87,0.00,,,0.00,Wunderground v.1.15,2013-02-25 03:44:00,
2013-02-24 21:45:00,62.1,58.2,29.57,SE,141,7.0,10.0,87,0.00,,,0.00,Wunderground v.1.15,2013-02-25 03:45:00,
2013-02-24 21:48:00,62.1,58.2,29.57,SE,140,7.0,10.0,87,0.00,,,0.00,Wunderground v.1.15,2013-02-25 03:48:00,
2013-02-24 21:50:00,62.1,58.2,29.57,SSE,154,7.0,10.0,87,0.00,,,0.00,Wunderground v.1.15,2013-02-25 03:50:00,
2013-02-24 21:52:00,62.1,58.2,29.57,ESE,114,7.0,7.0,87,0.00,,,0.00,Wunderground v.1.15,2013-02-25 03:52:00,
2013-02-24 21:54:00,62.1,58.5,29.57,SSE,157,7.0,7.0,88,0.00,,,0.00,Wunderground v.1.15,2013-02-25 03:54:00,
2013-02-24 21:56:00,62.1,58.5,29.57,ESE,106,6.0,7.0,88,0.00,,,0.00,Wunderground v.1.15,2013-02-25 03:56:00,
2013-02-24 21:59:00,62.1,58.5,29.57,SE,128,6.0,7.0,88,0.00,,,0.00,Wunderground v.1.15,2013-02-25 03:59:00,
2013-02-24 22:02:00,62.1,58.5,29.57,SE,126,6.0,7.0,88,0.00,,,0.00,Wunderground v.1.15,2013-02-25 04:02:00,
2013-02-24 22:06:00,62.0,58.4,29.57,SSE,151,6.0,10.0,88,0.00,,,0.00,Wunderground v.1.15,2013-02-25 04:06:00,
2013-02-24 22:07:00,62.0,58.4,29.57,SSE,148,6.0,10.0,88,0.00,,,0.00,Wunderground v.1.15,2013-02-25 04:07:00,
2013-02-24 22:10:00,62.0,58.4,29.57,SE,143,7.0,10.0,88,0.00,,,0.00,Wunderground v.1.15,2013-02-25 04:10:00,
2013-02-24 22:11:00,62.0,58.4,29.57,East,93,6.0,7.0,88,0.00,,,0.00,Wunderground v.1.15,2013-02-25 04:11:00,
2013-02-24 22:13:00,62.0,58.4,29.57,SE,144,7.0,7.0,88,0.00,,,0.00,Wunderground v.1.15,2013-02-25 04:13:00,
2013-02-24 22:17:00,62.0,58.4,29.55,ESE,123,7.0,9.0,88,0.00,,,0.00,Wunderground v.1.15,2013-02-25 04:17:00,
2013-02-24 22:18:00,62.0,58.4,29.55,SSE,147,7.0,9.0,88,0.00,,,0.00,Wunderground v.1.15,2013-02-25 04:18:00,
2013-02-24 22:19:00,62.0,58.4,29.55,SE,130,7.0,11.0,88,0.00,,,0.00,Wunderground v.1.15,2013-02-25 04:19:00,
2013-02-24 22:20:00,62.0,58.4,29.55,SE,130,7.0,11.0,88,0.00,,,0.00,Wunderground v.1.15,2013-02-25 04:20:00,
2013-02-24 22:23:00,61.8,58.5,29.55,ESE,106,7.0,7.0,89,0.00,,,0.00,Wunderground v.1.15,2013-02-25 04:23:00,
2013-02-24 22:24:00,61.8,58.5,29.55,SE,126,7.0,7.0,89,0.00,,,0.00,Wunderground v.1.15,2013-02-25 04:24:00,
2013-02-24 22:25:00,61.8,58.5,29.55,SSE,155,7.0,7.0,89,0.00,,,0.00,Wunderground v.1.15,2013-02-25 04:25:00,
2013-02-24 22:28:00,61.8,58.5,29.55,SE,128,7.0,7.0,89,0.00,,,0.00,Wunderground v.1.15,2013-02-25 04:28:00,
2013-02-24 22:29:00,61.8,58.5,29.55,SSE,154,7.0,7.0,89,0.00,,,0.00,Wunderground v.1.15,2013-02-25 04:29:00,
2013-02-24 22:31:00,61.8,58.5,29.55,SSE,147,7.0,12.0,89,0.00,,,0.00,Wunderground v.1.15,2013-02-25 04:31:00,
2013-02-24 22:34:00,61.8,58.5,29.55,SE,141,7.0,12.0,89,0.00,,,0.00,Wunderground v.1.15,2013-02-25 04:34:00,
2013-02-24 22:39:00,61.8,58.8,29.55,SE,138,8.0,12.0,90,0.00,,,0.00,Wunderground v.1.15,2013-02-25 04:39:00,
2013-02-24 22:40:00,61.8,58.8,29.55,ESE,121,7.0,12.0,90,0.00,,,0.00,Wunderground v.1.15,2013-02-25 04:40:00,
2013-02-24 22:44:00,61.8,58.8,29.55,South,181,6.0,13.0,90,0.00,,,0.00,Wunderground v.1.15,2013-02-25 04:44:00,
2013-02-24 22:46:00,61.6,58.6,29.54,SE,141,6.0,13.0,90,0.00,,,0.00,Wunderground v.1.15,2013-02-25 04:46:00,
2013-02-24 22:47:00,61.6,58.6,29.54,SSE,162,6.0,13.0,90,0.00,,,0.00,Wunderground v.1.15,2013-02-25 04:47:00,
2013-02-24 22:49:00,61.6,58.6,29.54,ESE,120,6.0,13.0,90,0.00,,,0.00,Wunderground v.1.15,2013-02-25 04:49:00,
2013-02-24 22:52:00,61.5,58.5,29.54,SSE,152,7.0,7.0,90,0.00,,,0.00,Wunderground v.1.15,2013-02-25 04:52:00,
2013-02-24 22:55:00,61.5,58.8,29.54,SSE,150,7.0,8.0,91,0.00,,,0.00,Wunderground v.1.15,2013-02-25 04:55:00,
2013-02-24 22:56:00,61.5,58.8,29.54,SE,136,7.0,9.0,91,0.00,,,0.00,Wunderground v.1.15,2013-02-25 04:56:00,
2013-02-24 23:00:00,61.3,59.0,29.54,SE,140,8.0,9.0,92,0.00,,,0.00,Wunderground v.1.15,2013-02-25 05:00:00,
2013-02-24 23:02:00,61.3,59.0,29.53,ESE,123,8.0,8.0,92,0.00,,,0.00,Wunderground v.1.15,2013-02-25 05:02:00,
2013-02-24 23:03:00,61.3,59.0,29.53,SSE,148,8.0,8.0,92,0.00,,,0.00,Wunderground v.1.15,2013-02-25 05:03:00,
2013-02-24 23:04:00,61.3,59.0,29.53,ESE,112,7.0,8.0,92,0.00,,,0.00,Wunderground v.1.15,2013-02-25 05:04:00,
2013-02-24 23:09:00,61.2,58.9,29.53,SE,134,7.0,11.0,92,0.00,,,0.00,Wunderground v.1.15,2013-02-25 05:09:00,
2013-02-24 23:12:00,61.2,58.9,29.53,SSE,168,7.0,8.0,92,0.00,,,0.00,Wunderground v.1.15,2013-02-25 05:12:00,
2013-02-24 23:13:00,61.2,58.9,29.53,SE,130,7.0,8.0,92,0.00,,,0.00,Wunderground v.1.15,2013-02-25 05:13:00,
2013-02-24 23:15:00,61.2,59.2,29.53,SE,127,8.0,8.0,93,0.00,,,0.00,Wunderground v.1.15,2013-02-25 05:15:00,
2013-02-24 23:17:00,61.2,59.2,29.53,SE,145,7.0,8.0,93,0.00,,,0.00,Wunderground v.1.15,2013-02-25 05:17:00,
2013-02-24 23:18:00,61.2,59.2,29.53,SSE,151,7.0,8.0,93,0.00,,,0.00,Wunderground v.1.15,2013-02-25 05:18:00,
2013-02-24 23:20:00,61.2,59.2,29.53,SE,140,6.0,8.0,93,0.00,,,0.00,Wunderground v.1.15,2013-02-25 05:20:00,
2013-02-24 23:22:00,61.2,59.2,29.53,ESE,121,5.0,8.0,93,0.00,,,0.00,Wunderground v.1.15,2013-02-25 05:22:00,
2013-02-24 23:23:00,61.2,59.2,29.53,SE,143,5.0,8.0,93,0.00,,,0.00,Wunderground v.1.15,2013-02-25 05:23:00,
2013-02-24 23:24:00,61.2,59.2,29.53,SSE,157,5.0,8.0,93,0.00,,,0.00,Wunderground v.1.15,2013-02-25 05:24:00,
2013-02-24 23:27:00,61.2,59.2,29.53,SSE,150,5.0,8.0,93,0.00,,,0.00,Wunderground v.1.15,2013-02-25 05:27:00,
2013-02-24 23:29:00,61.2,59.5,29.53,SE,127,5.0,8.0,94,0.00,,,0.00,Wunderground v.1.15,2013-02-25 05:29:00,
2013-02-24 23:30:00,61.2,59.5,29.53,SE,138,5.0,10.0,94,0.00,,,0.00,Wunderground v.1.15,2013-02-25 05:30:00,
2013-02-24 23:33:00,61.0,59.3,29.52,SSE,152,6.0,7.0,94,0.00,,,0.00,Wunderground v.1.15,2013-02-25 05:33:00,
2013-02-24 23:34:00,61.0,59.3,29.52,SE,124,5.0,9.0,94,0.00,,,0.00,Wunderground v.1.15,2013-02-25 05:34:00,
2013-02-24 23:35:00,61.0,59.3,29.52,SE,130,6.0,9.0,94,0.00,,,0.00,Wunderground v.1.15,2013-02-25 05:35:00,
2013-02-24 23:39:00,61.0,59.3,29.52,SE,130,7.0,12.0,94,0.00,,,0.00,Wunderground v.1.15,2013-02-25 05:39:00,
2013-02-24 23:40:00,61.0,59.3,29.52,SSE,152,7.0,12.0,94,0.00,,,0.00,Wunderground v.1.15,2013-02-25 05:40:00,
2013-02-24 23:44:00,61.0,59.3,29.52,SE,134,5.0,8.0,94,0.00,,,0.00,Wunderground v.1.15,2013-02-25 05:44:00,
2013-02-24 23:45:00,61.0,59.3,29.52,SE,143,5.0,8.0,94,0.00,,,0.00,Wunderground v.1.15,2013-02-25 05:45:00,
2013-02-24 23:47:00,61.0,59.3,29.51,ESE,117,5.0,8.0,94,0.00,,,0.00,Wunderground v.1.15,2013-02-25 05:47:00,
2013-02-24 23:49:00,61.0,59.3,29.51,SSE,151,5.0,8.0,94,0.00,,,0.00,Wunderground v.1.15,2013-02-25 05:49:00,
2013-02-24 23:52:00,60.9,59.5,29.51,South,184,6.0,8.0,95,0.00,,,0.00,Wunderground v.1.15,2013-02-25 05:52:00,
2013-02-24 23:56:00,60.9,59.5,29.51,SE,137,6.0,9.0,95,0.00,,,0.00,Wunderground v.1.15,2013-02-25 05:56:00,
2013-02-24 23:57:00,60.9,59.5,29.51,SE,138,7.0,9.0,95,0.00,,,0.00,Wunderground v.1.15,2013-02-25 05:57:00,
2013-02-24 23:58:00,60.9,59.5,29.51,SSE,150,7.0,9.0,95,0.00,,,0.00,Wunderground v.1.15,2013-02-25 05:58:00,